Time,TemperatureF,DewpointF,PressureIn,WindDirection,WindDirectionDegrees,WindSpeedMPH,WindSpeedGustMPH,Humidity,HourlyPrecipIn,Conditions,Clouds,dailyrainin,SoftwareType,DateUTC
2013-01-27 00:00:00,20.8,12.2,30.12,East,92,4.0,4.0,69,0.00,,,0.00,Wunderground v.1.13,2013-01-27 06:00:00,
2013-01-27 00:01:00,20.8,12.2,30.12,East,87,4.0,4.0,69,0.00,,,0.00,Wunderground v.1.13,2013-01-27 06:01:00,
2013-01-27 00:05:00,20.8,12.2,30.12,ESE,107,4.0,4.0,69,0.00,,,0.00,Wunderground v.1.13,2013-01-27 06:05:00,
2013-01-27 00:06:00,20.8,12.2,30.12,ESE,108,4.0,5.0,69,0.00,,,0.00,Wunderground v.1.13,2013-01-27 06:06:00,
2013-01-27 00:08:00,20.9,12.0,30.12,ESE,113,4.0,6.0,68,0.00,,,0.00,Wunderground v.1.13,2013-01-27 06:08:00,
2013-01-27 00:12:00,20.8,12.2,30.12,ESE,119,5.0,9.0,69,0.00,,,0.00,Wunderground v.1.13,2013-01-27 06:12:00,
2013-01-27 00:14:00,20.8,12.2,30.11,ESE,117,5.0,9.0,69,0.00,,,0.00,Wunderground v.1.13,2013-01-27 06:14:00,
2013-01-27 00:15:00,20.7,12.1,30.11,ESE,107,5.0,6.0,69,0.00,,,0.00,Wunderground v.1.13,2013-01-27 06:15:00,
2013-01-27 00:20:00,20.7,12.1,30.11,ESE,113,6.0,6.0,69,0.00,,,0.00,Wunderground v.1.13,2013-01-27 06:20:00,
2013-01-27 00:21:00,20.7,12.1,30.11,ESE,115,6.0,6.0,69,0.00,,,0.00,Wunderground v.1.13,2013-01-27 06:21:00,
2013-01-27 00:22:00,20.7,12.1,30.11,ESE,115,6.0,7.0,69,0.00,,,0.00,Wunderground v.1.13,2013-01-27 06:22:00,
2013-01-27 00:27:00,20.7,12.1,30.11,ESE,115,6.0,8.0,69,0.00,,,0.00,Wunderground v.1.13,2013-01-27 06:27:00,
2013-01-27 00:28:00,20.7,12.5,30.11,East,99,6.0,8.0,70,0.00,,,0.00,Wunderground v.1.13,2013-01-27 06:28:00,
2013-01-27 00:30:00,20.7,12.1,30.11,ESE,106,6.0,6.0,69,0.00,,,0.00,Wunderground v.1.13,2013-01-27 06:30:00,
2013-01-27 00:31:00,20.7,12.1,30.11,ESE,116,6.0,6.0,69,0.00,,,0.00,Wunderground v.1.13,2013-01-27 06:31:00,
2013-01-27 00:33:00,20.7,12.1,30.11,ESE,107,6.0,7.0,69,0.00,,,0.00,Wunderground v.1.13,2013-01-27 06:33:00,
2013-01-27 00:35:00,20.7,12.1,30.11,ESE,116,6.0,7.0,69,0.00,,,0.00,Wunderground v.1.13,2013-01-27 06:35:00,
2013-01-27 00:37:00,20.7,12.5,30.11,East,93,6.0,7.0,70,0.00,,,0.00,Wunderground v.1.13,2013-01-27 06:37:00,
2013-01-27 00:38:00,20.7,12.1,30.11,East,91,6.0,7.0,69,0.00,,,0.00,Wunderground v.1.13,2013-01-27 06:38:00,
2013-01-27 00:39:00,20.7,12.1,30.11,East,92,5.0,7.0,69,0.00,,,0.00,Wunderground v.1.13,2013-01-27 06:39:00,
2013-01-27 00:42:00,20.7,12.1,30.11,East,83,4.0,5.0,69,0.00,,,0.00,Wunderground v.1.13,2013-01-27 06:42:00,
2013-01-27 00:43:00,20.7,12.5,30.11,ENE,75,4.0,5.0,70,0.00,,,0.00,Wunderground v.1.13,2013-01-27 06:43:00,
2013-01-27 00:44:00,20.7,12.1,30.11,East,87,4.0,5.0,69,0.00,,,0.00,Wunderground v.1.13,2013-01-27 06:44:00,
2013-01-27 00:45:00,20.7,12.5,30.11,East,96,4.0,5.0,70,0.00,,,0.00,Wunderground v.1.13,2013-01-27 06:45:00,
2013-01-27 00:49:00,20.8,12.2,30.11,East,99,3.0,5.0,69,0.00,,,0.00,Wunderground v.1.13,2013-01-27 06:49:00,
2013-01-27 00:50:00,20.8,12.2,30.11,East,99,3.0,3.0,69,0.00,,,0.00,Wunderground v.1.13,2013-01-27 06:50:00,
2013-01-27 00:51:00,20.8,12.2,30.11,East,98,3.0,4.0,69,0.00,,,0.00,Wunderground v.1.13,2013-01-27 06:51:00,
2013-01-27 00:57:00,20.7,12.5,30.11,East,99,3.0,8.0,70,0.00,,,0.00,Wunderground v.1.13,2013-01-27 06:57:00,
2013-01-27 01:00:00,20.7,12.5,30.11,East,96,3.0,5.0,70,0.00,,,0.00,Wunderground v.1.13,2013-01-27 07:00:00,
2013-01-27 01:02:00,20.7,12.5,30.10,East,82,3.0,5.0,70,0.00,,,0.00,Wunderground v.1.13,2013-01-27 07:02:00,
2013-01-27 01:05:00,20.6,12.4,30.10,East,85,3.0,4.0,70,0.00,,,0.00,Wunderground v.1.13,2013-01-27 07:05:00,
2013-01-27 01:07:00,20.6,12.4,30.10,East,90,3.0,6.0,70,0.00,,,0.00,Wunderground v.1.13,2013-01-27 07:07:00,
2013-01-27 01:08:00,20.6,12.4,30.10,East,92,3.0,6.0,70,0.00,,,0.00,Wunderground v.1.13,2013-01-27 07:08:00,
2013-01-27 01:13:00,20.6,12.4,30.10,East,88,3.0,6.0,70,0.00,,,0.00,Wunderground v.1.13,2013-01-27 07:13:00,
2013-01-27 01:14:00,20.6,12.4,30.10,East,86,3.0,6.0,70,0.00,,,0.00,Wunderground v.1.13,2013-01-27 07:14:00,
2013-01-27 01:16:00,20.6,12.4,30.10,East,83,3.0,4.0,70,0.00,,,0.00,Wunderground v.1.13,2013-01-27 07:16:00,
2013-01-27 01:17:00,20.6,12.4,30.10,East,84,3.0,5.0,70,0.00,,,0.00,Wunderground v.1.13,2013-01-27 07:17:00,
2013-01-27 01:20:00,20.5,12.6,30.10,East,84,3.0,4.0,71,0.00,,,0.00,Wunderground v.1.13,2013-01-27 07:20:00,
2013-01-27 01:23:00,20.3,12.4,30.10,ENE,65,3.0,6.0,71,0.00,,,0.00,Wunderground v.1.13,2013-01-27 07:23:00,
2013-01-27 01:25:00,20.3,12.4,30.10,ENE,69,3.0,4.0,71,0.00,,,0.00,Wunderground v.1.13,2013-01-27 07:25:00,
2013-01-27 01:27:00,20.1,12.2,30.10,East,82,3.0,5.0,71,0.00,,,0.00,Wunderground v.1.13,2013-01-27 07:27:00,
2013-01-27 01:29:00,20.1,12.5,30.09,East,87,4.0,5.0,72,0.00,,,0.00,Wunderground v.1.13,2013-01-27 07:29:00,
2013-01-27 01:31:00,20.1,12.2,30.09,East,90,4.0,5.0,71,0.00,,,0.00,Wunderground v.1.13,2013-01-27 07:31:00,
2013-01-27 01:33:00,20.1,12.2,30.09,East,90,4.0,5.0,71,0.00,,,0.00,Wunderground v.1.13,2013-01-27 07:33:00,
2013-01-27 01:35:00,20.1,12.2,30.09,East,87,4.0,5.0,71,0.00,,,0.00,Wunderground v.1.13,2013-01-27 07:35:00,
2013-01-27 01:36:00,20.1,12.2,30.09,ENE,72,4.0,5.0,71,0.00,,,0.00,Wunderground v.1.13,2013-01-27 07:36:00,
2013-01-27 01:38:00,20.1,12.2,30.09,ENE,66,4.0,5.0,71,0.00,,,0.00,Wunderground v.1.13,2013-01-27 07:38:00,
2013-01-27 01:43:00,20.1,12.2,30.09,ENE,65,3.0,4.0,71,0.00,,,0.00,Wunderground v.1.13,2013-01-27 07:43:00,
2013-01-27 01:44:00,20.1,12.5,30.09,ENE,65,3.0,4.0,72,0.00,,,0.00,Wunderground v.1.13,2013-01-27 07:44:00,
2013-01-27 01:48:00,19.9,12.3,30.09,ENE,67,3.0,4.0,72,0.00,,,0.00,Wunderground v.1.13,2013-01-27 07:48:00,
2013-01-27 01:51:00,19.8,12.2,30.09,ENE,69,3.0,4.0,72,0.00,,,0.00,Wunderground v.1.13,2013-01-27 07:51:00,
2013-01-27 01:53:00,19.7,12.1,30.09,ENE,71,2.0,4.0,72,0.00,,,0.00,Wunderground v.1.13,2013-01-27 07:53:00,
2013-01-27 01:55:00,19.7,12.1,30.09,ENE,60,2.0,3.0,72,0.00,,,0.00,Wunderground v.1.13,2013-01-27 07:55:00,
2013-01-27 01:56:00,19.7,12.1,30.09,ENE,69,3.0,3.0,72,0.00,,,0.00,Wunderground v.1.13,2013-01-27 07:56:00,
2013-01-27 02:01:00,19.6,12.0,30.09,ENE,69,3.0,5.0,72,0.00,,,0.00,Wunderground v.1.13,2013-01-27 08:01:00,
2013-01-27 02:02:00,19.6,12.0,30.09,ENE,69,3.0,5.0,72,0.00,,,0.00,Wunderground v.1.13,2013-01-27 08:02:00,
2013-01-27 02:03:00,19.6,12.0,30.09,ENE,69,4.0,5.0,72,0.00,,,0.00,Wunderground v.1.13,2013-01-27 08:03:00,
2013-01-27 02:08:00,19.5,12.3,30.09,ENE,69,3.0,4.0,73,0.00,,,0.00,Wunderground v.1.13,2013-01-27 08:08:00,
2013-01-27 02:09:00,19.5,12.3,30.09,ENE,69,3.0,4.0,73,0.00,,,0.00,Wunderground v.1.13,2013-01-27 08:09:00,
2013-01-27 02:13:00,19.5,12.3,30.09,ENE,72,3.0,3.0,73,0.00,,,0.00,Wunderground v.1.13,2013-01-27 08:13:00,
2013-01-27 02:14:00,19.5,12.3,30.09,ENE,71,3.0,4.0,73,0.00,,,0.00,Wunderground v.1.13,2013-01-27 08:14:00,
2013-01-27 02:17:00,19.5,12.3,30.09,ENE,71,3.0,5.0,73,0.00,,,0.00,Wunderground v.1.13,2013-01-27 08:17:00,
2013-01-27 02:19:00,19.5,12.3,30.09,ENE,71,4.0,5.0,73,0.00,,,0.00,Wunderground v.1.13,2013-01-27 08:19:00,
2013-01-27 02:20:00,19.5,12.3,30.09,ENE,71,4.0,5.0,73,0.00,,,0.00,Wunderground v.1.13,2013-01-27 08:20:00,
2013-01-27 02:23:00,19.5,12.3,30.09,ENE,71,4.0,5.0,73,0.00,,,0.00,Wunderground v.1.13,2013-01-27 08:23:00,
2013-01-27 02:25:00,19.5,12.3,30.09,ENE,71,4.0,4.0,73,0.00,,,0.00,Wunderground v.1.13,2013-01-27 08:25:00,
2013-01-27 02:30:00,19.4,12.2,30.09,ENE,71,3.0,3.0,73,0.00,,,0.00,Wunderground v.1.13,2013-01-27 08:30:00,
2013-01-27 02:32:00,19.4,12.2,30.09,ENE,71,3.0,4.0,73,0.00,,,0.00,Wunderground v.1.13,2013-01-27 08:32:00,
2013-01-27 02:34:00,19.4,12.2,30.09,ENE,71,3.0,5.0,73,0.00,,,0.00,Wunderground v.1.13,2013-01-27 08:34:00,
2013-01-27 02:38:00,19.4,12.2,30.09,ENE,72,3.0,4.0,73,0.00,,,0.00,Wunderground v.1.13,2013-01-27 08:38:00,
2013-01-27 02:39:00,19.4,12.2,30.09,ENE,72,3.0,5.0,73,0.00,,,0.00,Wunderground v.1.13,2013-01-27 08:39:00,
2013-01-27 02:44:00,19.4,12.2,30.09,ENE,74,3.0,4.0,73,0.00,,,0.00,Wunderground v.1.13,2013-01-27 08:44:00,
2013-01-27 02:47:00,19.5,12.3,30.08,ENE,73,3.0,6.0,73,0.00,,,0.00,Wunderground v.1.13,2013-01-27 08:47:00,
2013-01-27 02:50:00,19.5,12.3,30.08,ENE,73,3.0,3.0,73,0.00,,,0.00,Wunderground v.1.13,2013-01-27 08:50:00,
2013-01-27 02:52:00,19.6,12.3,30.08,ENE,74,3.0,3.0,73,0.00,,,0.00,Wunderground v.1.13,2013-01-27 08:52:00,
2013-01-27 02:54:00,19.6,12.3,30.08,East,89,3.0,6.0,73,0.00,,,0.00,Wunderground v.1.13,2013-01-27 08:54:00,
2013-01-27 02:58:00,19.8,12.5,30.08,ENE,76,3.0,4.0,73,0.00,,,0.00,Wunderground v.1.13,2013-01-27 08:58:00,
2013-01-27 03:00:00,19.9,12.6,30.08,East,84,3.0,3.0,73,0.00,,,0.00,Wunderground v.1.13,2013-01-27 09:00:00,
2013-01-27 03:01:00,20.0,12.7,30.08,East,84,3.0,3.0,73,0.00,,,0.00,Wunderground v.1.13,2013-01-27 09:01:00,
2013-01-27 03:06:00,20.1,12.8,30.07,ENE,78,3.0,4.0,73,0.00,,,0.00,Wunderground v.1.13,2013-01-27 09:06:00,
2013-01-27 03:08:00,20.1,12.8,30.07,East,79,3.0,4.0,73,0.00,,,0.00,Wunderground v.1.13,2013-01-27 09:08:00,
2013-01-27 03:09:00,20.1,12.8,30.07,ENE,67,3.0,5.0,73,0.00,,,0.00,Wunderground v.1.13,2013-01-27 09:09:00,
2013-01-27 03:10:00,20.1,12.8,30.07,East,85,3.0,3.0,73,0.00,,,0.00,Wunderground v.1.13,2013-01-27 09:10:00,
2013-01-27 03:14:00,20.2,12.9,30.07,NE,53,3.0,5.0,73,0.00,,,0.00,Wunderground v.1.13,2013-01-27 09:14:00,
2013-01-27 03:16:00,20.3,12.7,30.07,ENE,67,3.0,4.0,72,0.00,,,0.00,Wunderground v.1.13,2013-01-27 09:16:00,
2013-01-27 03:19:00,20.5,12.9,30.07,ENE,74,3.0,4.0,72,0.00,,,0.00,Wunderground v.1.13,2013-01-27 09:19:00,
2013-01-27 03:22:00,20.5,12.9,30.07,East,79,3.0,4.0,72,0.00,,,0.00,Wunderground v.1.13,2013-01-27 09:22:00,
2013-01-27 03:24:00,20.5,13.2,30.07,East,80,3.0,4.0,73,0.00,,,0.00,Wunderground v.1.13,2013-01-27 09:24:00,
2013-01-27 03:25:00,20.5,13.2,30.06,East,80,3.0,3.0,73,0.00,,,0.00,Wunderground v.1.13,2013-01-27 09:25:00,
2013-01-27 03:26:00,20.4,12.8,30.06,East,81,3.0,3.0,72,0.00,,,0.00,Wunderground v.1.13,2013-01-27 09:26:00,
2013-01-27 03:30:00,20.4,12.8,30.06,East,82,3.0,4.0,72,0.00,,,0.00,Wunderground v.1.13,2013-01-27 09:30:00,
2013-01-27 03:31:00,20.5,12.9,30.06,East,82,3.0,4.0,72,0.00,,,0.00,Wunderground v.1.13,2013-01-27 09:31:00,
2013-01-27 03:36:00,20.6,13.0,30.06,East,86,3.0,5.0,72,0.00,,,0.00,Wunderground v.1.13,2013-01-27 09:36:00,
2013-01-27 03:37:00,20.7,13.1,30.06,East,84,3.0,5.0,72,0.00,,,0.00,Wunderground v.1.13,2013-01-27 09:37:00,
2013-01-27 03:39:00,20.7,13.1,30.06,East,84,4.0,5.0,72,0.00,,,0.00,Wunderground v.1.13,2013-01-27 09:39:00,
2013-01-27 03:42:00,20.7,13.1,30.06,East,88,4.0,6.0,72,0.00,,,0.00,Wunderground v.1.13,2013-01-27 09:42:00,
2013-01-27 03:45:00,20.8,13.2,30.06,East,101,4.0,4.0,72,0.00,,,0.00,Wunderground v.1.13,2013-01-27 09:45:00,
2013-01-27 03:46:00,20.8,13.2,30.06,East,101,4.0,4.0,72,0.00,,,0.00,Wunderground v.1.13,2013-01-27 09:46:00,
2013-01-27 03:48:00,20.7,13.1,30.05,East,101,4.0,5.0,72,0.00,,,0.00,Wunderground v.1.13,2013-01-27 09:48:00,
2013-01-27 03:51:00,20.8,13.2,30.05,ENE,63,4.0,4.0,72,0.00,,,0.00,Wunderground v.1.13,2013-01-27 09:51:00,
2013-01-27 03:53:00,20.8,13.2,30.05,ENE,68,4.0,5.0,72,0.00,,,0.00,Wunderground v.1.13,2013-01-27 09:53:00,
2013-01-27 03:55:00,20.8,13.2,30.05,ENE,70,3.0,3.0,72,0.00,,,0.00,Wunderground v.1.13,2013-01-27 09:55:00,
2013-01-27 03:58:00,20.8,13.2,30.05,East,87,3.0,5.0,72,0.00,,,0.00,Wunderground v.1.13,2013-01-27 09:58:00,
2013-01-27 04:00:00,20.8,13.2,30.05,ENE,67,3.0,4.0,72,0.00,,,0.00,Wunderground v.1.13,2013-01-27 10:00:00,
2013-01-27 04:03:00,20.8,13.2,30.05,East,80,4.0,4.0,72,0.00,,,0.00,Wunderground v.1.13,2013-01-27 10:03:00,
2013-01-27 04:07:00,20.8,13.2,30.05,East,84,4.0,4.0,72,0.00,,,0.00,Wunderground v.1.13,2013-01-27 10:07:00,
2013-01-27 04:12:00,20.7,13.1,30.04,East,84,3.0,4.0,72,0.00,,,0.00,Wunderground v.1.13,2013-01-27 10:12:00,
2013-01-27 04:14:00,20.6,13.0,30.04,East,83,3.0,5.0,72,0.00,,,0.00,Wunderground v.1.13,2013-01-27 10:14:00,
2013-01-27 04:18:00,20.6,13.0,30.04,ENE,67,3.0,5.0,72,0.00,,,0.00,Wunderground v.1.13,2013-01-27 10:18:00,
2013-01-27 04:19:00,20.5,13.2,30.04,ENE,67,3.0,5.0,73,0.00,,,0.00,Wunderground v.1.13,2013-01-27 10:19:00,
2013-01-27 04:25:00,20.4,13.1,30.04,ENE,67,3.0,5.0,73,0.00,,,0.00,Wunderground v.1.13,2013-01-27 10:25:00,
2013-01-27 04:28:00,20.5,13.2,30.04,ENE,63,4.0,5.0,73,0.00,,,0.00,Wunderground v.1.13,2013-01-27 10:28:00,
2013-01-27 04:29:00,20.5,13.2,30.04,ENE,64,4.0,5.0,73,0.00,,,0.00,Wunderground v.1.13,2013-01-27 10:29:00,
2013-01-27 04:30:00,20.5,13.2,30.04,ENE,64,4.0,4.0,73,0.00,,,0.00,Wunderground v.1.13,2013-01-27 10:30:00,
2013-01-27 04:32:00,20.6,13.3,30.04,ENE,64,4.0,4.0,73,0.00,,,0.00,Wunderground v.1.13,2013-01-27 10:32:00,
2013-01-27 04:34:00,20.6,13.3,30.03,ENE,64,4.0,4.0,73,0.00,,,0.00,Wunderground v.1.13,2013-01-27 10:34:00,
2013-01-27 04:36:00,20.6,13.3,30.03,ENE,65,4.0,5.0,73,0.00,,,0.00,Wunderground v.1.13,2013-01-27 10:36:00,
2013-01-27 04:41:00,20.8,13.5,30.03,ENE,67,4.0,4.0,73,0.00,,,0.00,Wunderground v.1.13,2013-01-27 10:41:00,
2013-01-27 04:42:00,20.8,13.5,30.03,ENE,67,4.0,4.0,73,0.00,,,0.00,Wunderground v.1.13,2013-01-27 10:42:00,
2013-01-27 04:44:00,20.8,13.5,30.03,ENE,67,3.0,4.0,73,0.00,,,0.00,Wunderground v.1.13,2013-01-27 10:44:00,
2013-01-27 04:46:00,20.7,13.4,30.04,ENE,67,3.0,4.0,73,0.00,,,0.00,Wunderground v.1.13,2013-01-27 10:46:00,
2013-01-27 04:49:00,20.6,13.3,30.03,ENE,67,3.0,4.0,73,0.00,,,0.00,Wunderground v.1.13,2013-01-27 10:49:00,
2013-01-27 04:52:00,20.6,13.3,30.03,ENE,67,3.0,3.0,73,0.00,,,0.00,Wunderground v.1.13,2013-01-27 10:52:00,
2013-01-27 04:54:00,20.5,13.5,30.03,ENE,67,3.0,3.0,74,0.00,,,0.00,Wunderground v.1.13,2013-01-27 10:54:00,
2013-01-27 04:55:00,20.5,13.5,30.03,ENE,67,3.0,4.0,74,0.00,,,0.00,Wunderground v.1.13,2013-01-27 10:55:00,
2013-01-27 05:01:00,20.7,13.4,30.03,ENE,67,3.0,4.0,73,0.00,,,0.00,Wunderground v.1.13,2013-01-27 11:01:00,
2013-01-27 05:03:00,20.8,13.5,30.03,ENE,67,4.0,4.0,73,0.00,,,0.00,Wunderground v.1.13,2013-01-27 11:03:00,
2013-01-27 05:04:00,20.8,13.5,30.03,ENE,67,4.0,4.0,73,0.00,,,0.00,Wunderground v.1.13,2013-01-27 11:04:00,
2013-01-27 05:09:00,20.7,13.4,30.03,ENE,67,3.0,4.0,73,0.00,,,0.00,Wunderground v.1.13,2013-01-27 11:09:00,
2013-01-27 05:12:00,20.6,13.3,30.02,ENE,67,3.0,3.0,73,0.00,,,0.00,Wunderground v.1.13,2013-01-27 11:12:00,
2013-01-27 05:14:00,20.6,13.6,30.02,ENE,67,3.0,3.0,74,0.00,,,0.00,Wunderground v.1.13,2013-01-27 11:14:00,
2013-01-27 05:18:00,20.7,13.7,30.02,ENE,68,3.0,4.0,74,0.00,,,0.00,Wunderground v.1.13,2013-01-27 11:18:00,
2013-01-27 05:19:00,20.7,13.7,30.02,ENE,67,3.0,4.0,74,0.00,,,0.00,Wunderground v.1.13,2013-01-27 11:19:00,
2013-01-27 05:21:00,20.8,13.5,30.02,ENE,68,3.0,4.0,73,0.00,,,0.00,Wunderground v.1.13,2013-01-27 11:21:00,
2013-01-27 05:25:00,20.9,13.6,30.02,ENE,68,3.0,3.0,73,0.00,,,0.00,Wunderground v.1.13,2013-01-27 11:25:00,
2013-01-27 05:29:00,21.0,13.7,30.02,ENE,70,3.0,5.0,73,0.00,,,0.00,Wunderground v.1.13,2013-01-27 11:29:00,
2013-01-27 05:31:00,21.1,13.8,30.02,ENE,72,3.0,4.0,73,0.00,,,0.00,Wunderground v.1.13,2013-01-27 11:31:00,
2013-01-27 05:34:00,21.4,14.1,30.01,ENE,78,4.0,6.0,73,0.00,,,0.00,Wunderground v.1.13,2013-01-27 11:34:00,
2013-01-27 05:35:00,21.5,14.2,30.01,East,83,4.0,4.0,73,0.00,,,0.00,Wunderground v.1.13,2013-01-27 11:35:00,
2013-01-27 05:37:00,21.6,14.0,30.01,East,80,4.0,5.0,72,0.00,,,0.00,Wunderground v.1.13,2013-01-27 11:37:00,
2013-01-27 05:40:00,21.8,14.2,30.01,East,93,4.0,4.0,72,0.00,,,0.00,Wunderground v.1.13,2013-01-27 11:40:00,
2013-01-27 05:41:00,21.8,14.2,30.01,East,92,4.0,4.0,72,0.00,,,0.00,Wunderground v.1.13,2013-01-27 11:41:00,
2013-01-27 05:43:00,21.8,14.2,30.01,ENE,72,4.0,4.0,72,0.00,,,0.00,Wunderground v.1.13,2013-01-27 11:43:00,
2013-01-27 05:48:00,21.8,14.2,30.01,East,86,3.0,5.0,72,0.00,,,0.00,Wunderground v.1.13,2013-01-27 11:48:00,
2013-01-27 05:50:00,21.8,14.2,30.01,East,86,3.0,3.0,72,0.00,,,0.00,Wunderground v.1.13,2013-01-27 11:50:00,
2013-01-27 05:53:00,21.9,14.3,30.01,East,86,3.0,6.0,72,0.00,,,0.00,Wunderground v.1.13,2013-01-27 11:53:00,
2013-01-27 05:57:00,22.0,14.3,30.01,East,86,3.0,4.0,72,0.00,,,0.00,Wunderground v.1.13,2013-01-27 11:57:00,
2013-01-27 05:58:00,22.0,14.3,30.01,East,86,3.0,4.0,72,0.00,,,0.00,Wunderground v.1.13,2013-01-27 11:58:00,
2013-01-27 05:59:00,22.0,14.3,30.01,East,88,3.0,5.0,72,0.00,,,0.00,Wunderground v.1.13,2013-01-27 11:59:00,
2013-01-27 06:04:00,22.2,14.2,30.01,ESE,110,4.0,6.0,71,0.00,,,0.00,Wunderground v.1.13,2013-01-27 12:04:00,
2013-01-27 06:05:00,22.2,14.2,30.01,ESE,110,4.0,5.0,71,0.00,,,0.00,Wunderground v.1.13,2013-01-27 12:05:00,
2013-01-27 06:06:00,22.3,14.3,30.01,ESE,110,4.0,5.0,71,0.00,,,0.00,Wunderground v.1.13,2013-01-27 12:06:00,
2013-01-27 06:11:00,22.3,14.3,30.01,East,101,4.0,6.0,71,0.00,,,0.00,Wunderground v.1.13,2013-01-27 12:11:00,
2013-01-27 06:12:00,22.4,14.4,30.01,ESE,103,5.0,6.0,71,0.00,,,0.00,Wunderground v.1.13,2013-01-27 12:12:00,
2013-01-27 06:14:00,22.4,14.4,30.01,ESE,105,4.0,7.0,71,0.00,,,0.00,Wunderground v.1.13,2013-01-27 12:14:00,
2013-01-27 06:16:00,22.5,14.5,30.01,East,87,4.0,6.0,71,0.00,,,0.00,Wunderground v.1.13,2013-01-27 12:16:00,
2013-01-27 06:19:00,22.6,14.6,30.01,East,88,4.0,6.0,71,0.00,,,0.00,Wunderground v.1.13,2013-01-27 12:19:00,
2013-01-27 06:25:00,22.2,14.2,30.01,ESE,115,4.0,5.0,71,0.00,,,0.00,Wunderground v.1.13,2013-01-27 12:25:00,
2013-01-27 06:26:00,22.1,14.4,30.01,ESE,121,4.0,6.0,72,0.00,,,0.00,Wunderground v.1.13,2013-01-27 12:26:00,
2013-01-27 06:30:00,22.1,14.4,30.01,ESE,122,5.0,5.0,72,0.00,,,0.00,Wunderground v.1.13,2013-01-27 12:30:00,
2013-01-27 06:32:00,22.1,14.4,30.01,ESE,122,5.0,5.0,72,0.00,,,0.00,Wunderground v.1.13,2013-01-27 12:32:00,
2013-01-27 06:34:00,22.1,14.4,30.01,ESE,121,5.0,6.0,72,0.00,,,0.00,Wunderground v.1.13,2013-01-27 12:34:00,
2013-01-27 06:36:00,22.0,14.7,30.01,ESE,119,5.0,6.0,73,0.00,,,0.00,Wunderground v.1.13,2013-01-27 12:36:00,
2013-01-27 06:38:00,22.0,14.7,30.01,ESE,120,4.0,6.0,73,0.00,,,0.00,Wunderground v.1.13,2013-01-27 12:38:00,
2013-01-27 06:43:00,22.4,14.7,30.01,ESE,113,5.0,7.0,72,0.00,,,0.00,Wunderground v.1.13,2013-01-27 12:43:00,
2013-01-27 06:44:00,22.4,14.7,30.01,ESE,113,5.0,7.0,72,0.00,,,0.00,Wunderground v.1.13,2013-01-27 12:44:00,
2013-01-27 06:45:00,22.5,14.8,30.01,ESE,110,5.0,5.0,72,0.00,,,0.00,Wunderground v.1.13,2013-01-27 12:45:00,
2013-01-27 06:50:00,22.5,14.5,30.00,ESE,104,5.0,6.0,71,0.00,,,0.00,Wunderground v.1.13,2013-01-27 12:50:00,
2013-01-27 06:51:00,22.6,14.6,30.00,ESE,119,5.0,7.0,71,0.00,,,0.00,Wunderground v.1.13,2013-01-27 12:51:00,
2013-01-27 06:56:00,22.6,14.6,30.00,ESE,103,6.0,7.0,71,0.00,,,0.00,Wunderground v.1.13,2013-01-27 12:56:00,
2013-01-27 06:57:00,22.6,14.6,30.00,ESE,105,6.0,8.0,71,0.00,,,0.00,Wunderground v.1.13,2013-01-27 12:57:00,
2013-01-27 06:58:00,22.7,14.7,30.01,East,95,6.0,8.0,71,0.00,,,0.00,Wunderground v.1.13,2013-01-27 12:58:00,
2013-01-27 07:02:00,22.7,14.7,30.00,ESE,110,6.0,7.0,71,0.00,,,0.00,Wunderground v.1.13,2013-01-27 13:02:00,
2013-01-27 07:03:00,22.7,14.7,30.00,East,94,6.0,7.0,71,0.00,,,0.00,Wunderground v.1.13,2013-01-27 13:03:00,
2013-01-27 07:04:00,22.7,14.7,30.00,ESE,103,6.0,7.0,71,0.00,,,0.00,Wunderground v.1.13,2013-01-27 13:04:00,
2013-01-27 07:05:00,22.7,14.7,30.00,ESE,105,6.0,6.0,71,0.00,,,0.00,Wunderground v.1.13,2013-01-27 13:05:00,
2013-01-27 07:08:00,22.7,14.7,30.00,ESE,103,6.0,7.0,71,0.00,,,0.00,Wunderground v.1.13,2013-01-27 13:08:00,
2013-01-27 07:10:00,22.7,14.7,30.00,East,88,6.0,6.0,71,0.00,,,0.00,Wunderground v.1.13,2013-01-27 13:10:00,
2013-01-27 07:12:00,22.7,14.7,30.00,East,92,5.0,6.0,71,0.00,,,0.00,Wunderground v.1.13,2013-01-27 13:12:00,
2013-01-27 07:15:00,22.7,14.7,30.00,ESE,103,5.0,5.0,71,0.00,,,0.00,Wunderground v.1.13,2013-01-27 13:15:00,
2013-01-27 07:17:00,22.6,14.6,30.00,ESE,102,5.0,5.0,71,0.00,,,0.00,Wunderground v.1.13,2013-01-27 13:17:00,
2013-01-27 07:19:00,22.6,14.6,30.00,East,98,5.0,6.0,71,0.00,,,0.00,Wunderground v.1.13,2013-01-27 13:19:00,
2013-01-27 07:20:00,22.6,14.6,30.00,East,98,5.0,5.0,71,0.00,,,0.00,Wunderground v.1.13,2013-01-27 13:20:00,
2013-01-27 07:23:00,22.5,14.5,30.00,ESE,102,5.0,6.0,71,0.00,,,0.00,Wunderground v.1.13,2013-01-27 13:23:00,
2013-01-27 07:26:00,22.6,14.6,30.00,ESE,107,5.0,6.0,71,0.00,,,0.00,Wunderground v.1.13,2013-01-27 13:26:00,
2013-01-27 07:28:00,22.5,14.5,30.00,East,90,5.0,6.0,71,0.00,,,0.00,Wunderground v.1.13,2013-01-27 13:28:00,
2013-01-27 07:31:00,22.5,14.5,30.00,East,94,5.0,6.0,71,0.00,,,0.00,Wunderground v.1.13,2013-01-27 13:31:00,
2013-01-27 07:33:00,22.5,14.8,30.00,East,95,5.0,6.0,72,0.00,,,0.00,Wunderground v.1.13,2013-01-27 13:33:00,
2013-01-27 07:34:00,22.5,14.8,30.00,East,93,5.0,6.0,72,0.00,,,0.00,Wunderground v.1.13,2013-01-27 13:34:00,
2013-01-27 07:36:00,22.4,14.7,30.00,ESE,113,5.0,5.0,72,0.00,,,0.00,Wunderground v.1.13,2013-01-27 13:36:00,
2013-01-27 07:39:00,22.5,14.8,30.00,ESE,113,5.0,8.0,72,0.00,,,0.00,Wunderground v.1.13,2013-01-27 13:39:00,
2013-01-27 07:41:00,22.5,14.5,29.99,East,98,5.0,6.0,71,0.00,,,0.00,Wunderground v.1.13,2013-01-27 13:41:00,
2013-01-27 07:42:00,22.6,14.6,29.99,ESE,105,5.0,7.0,71,0.00,,,0.00,Wunderground v.1.13,2013-01-27 13:42:00,
2013-01-27 07:45:00,22.6,14.6,30.00,ESE,102,5.0,7.0,71,0.00,,,0.00,Wunderground v.1.13,2013-01-27 13:45:00,
2013-01-27 07:48:00,22.5,14.8,30.00,ESE,116,5.0,6.0,72,0.00,,,0.00,Wunderground v.1.13,2013-01-27 13:48:00,
2013-01-27 07:51:00,22.5,14.8,30.00,ESE,119,5.0,5.0,72,0.00,,,0.00,Wunderground v.1.13,2013-01-27 13:51:00,
2013-01-27 07:53:00,22.5,14.8,30.00,ESE,113,5.0,5.0,72,0.00,,,0.00,Wunderground v.1.13,2013-01-27 13:53:00,
2013-01-27 07:56:00,22.3,14.6,30.00,ESE,119,5.0,6.0,72,0.00,,,0.00,Wunderground v.1.13,2013-01-27 13:56:00,
2013-01-27 07:57:00,22.3,14.6,30.00,ESE,110,5.0,6.0,72,0.00,,,0.00,Wunderground v.1.13,2013-01-27 13:57:00,
2013-01-27 08:02:00,22.4,15.1,29.99,ESE,119,6.0,9.0,73,0.00,,,0.00,Wunderground v.1.13,2013-01-27 14:02:00,
2013-01-27 08:03:00,22.4,15.1,29.99,ESE,113,6.0,9.0,73,0.00,,,0.00,Wunderground v.1.13,2013-01-27 14:03:00,
2013-01-27 08:08:00,22.5,15.1,29.99,ESE,123,6.0,7.0,73,0.00,,,0.00,Wunderground v.1.13,2013-01-27 14:08:00,
2013-01-27 08:09:00,22.5,15.1,29.99,ESE,109,6.0,7.0,73,0.00,,,0.00,Wunderground v.1.13,2013-01-27 14:09:00,
2013-01-27 08:10:00,22.6,15.2,29.99,East,99,6.0,6.0,73,0.00,,,0.00,Wunderground v.1.13,2013-01-27 14:10:00,
2013-01-27 08:13:00,22.7,15.0,29.99,East,101,6.0,8.0,72,0.00,,,0.00,Wunderground v.1.13,2013-01-27 14:13:00,
2013-01-27 08:14:00,22.8,15.1,29.99,ESE,102,6.0,8.0,72,0.00,,,0.00,Wunderground v.1.13,2013-01-27 14:14:00,
2013-01-27 08:17:00,22.9,15.2,29.99,ESE,105,6.0,8.0,72,0.00,,,0.00,Wunderground v.1.13,2013-01-27 14:17:00,
2013-01-27 08:20:00,23.1,15.4,29.99,ESE,103,6.0,8.0,72,0.00,,,0.00,Wunderground v.1.13,2013-01-27 14:20:00,
2013-01-27 08:23:00,23.2,15.5,29.99,ESE,122,6.0,8.0,72,0.00,,,0.00,Wunderground v.1.13,2013-01-27 14:23:00,
2013-01-27 08:26:00,23.3,15.6,29.98,ESE,111,7.0,9.0,72,0.00,,,0.00,Wunderground v.1.13,2013-01-27 14:26:00,
2013-01-27 08:30:00,23.4,15.7,29.98,ESE,109,7.0,7.0,72,0.00,,,0.00,Wunderground v.1.13,2013-01-27 14:30:00,
2013-01-27 08:31:00,23.4,15.7,29.98,East,85,7.0,7.0,72,0.00,,,0.00,Wunderground v.1.13,2013-01-27 14:31:00,
2013-01-27 08:36:00,23.4,15.7,29.98,ESE,120,6.0,8.0,72,0.00,,,0.00,Wunderground v.1.13,2013-01-27 14:36:00,
2013-01-27 08:37:00,23.5,15.8,29.98,ESE,123,6.0,8.0,72,0.00,,,0.00,Wunderground v.1.13,2013-01-27 14:37:00,
2013-01-27 08:39:00,23.5,15.8,29.98,ESE,105,6.0,8.0,72,0.00,,,0.00,Wunderground v.1.13,2013-01-27 14:39:00,
2013-01-27 08:41:00,23.6,15.9,29.98,ESE,113,6.0,6.0,72,0.00,,,0.00,Wunderground v.1.13,2013-01-27 14:41:00,
2013-01-27 08:44:00,23.5,15.8,29.98,ESE,117,5.0,7.0,72,0.00,,,0.00,Wunderground v.1.13,2013-01-27 14:44:00,
2013-01-27 08:46:00,23.6,15.9,29.98,ESE,114,5.0,5.0,72,0.00,,,0.00,Wunderground v.1.13,2013-01-27 14:46:00,
2013-01-27 08:49:00,23.7,16.3,29.98,ESE,107,5.0,7.0,73,0.00,,,0.00,Wunderground v.1.13,2013-01-27 14:49:00,
2013-01-27 08:53:00,23.9,16.2,29.98,ESE,117,6.0,7.0,72,0.00,,,0.00,Wunderground v.1.13,2013-01-27 14:53:00,
2013-01-27 08:56:00,24.0,16.3,29.98,ESE,116,6.0,8.0,72,0.00,,,0.00,Wunderground v.1.13,2013-01-27 14:56:00,
2013-01-27 08:58:00,24.1,16.4,29.98,ESE,114,6.0,8.0,72,0.00,,,0.00,Wunderground v.1.13,2013-01-27 14:58:00,
2013-01-27 09:01:00,24.3,16.6,29.97,ESE,111,6.0,7.0,72,0.00,,,0.00,Wunderground v.1.13,2013-01-27 15:01:00,
2013-01-27 09:04:00,24.4,16.7,29.97,ESE,108,6.0,7.0,72,0.00,,,0.00,Wunderground v.1.13,2013-01-27 15:04:00,
2013-01-27 09:05:00,24.5,16.4,29.97,ESE,107,6.0,7.0,71,0.00,,,0.00,Wunderground v.1.13,2013-01-27 15:05:00,
2013-01-27 09:10:00,24.6,16.5,29.98,ESE,109,6.0,6.0,71,0.00,,,0.00,Wunderground v.1.13,2013-01-27 15:10:00,
2013-01-27 09:11:00,24.7,16.6,29.98,ESE,121,6.0,7.0,71,0.00,,,0.00,Wunderground v.1.13,2013-01-27 15:11:00,
2013-01-27 09:12:00,24.7,16.6,29.98,ESE,119,6.0,7.0,71,0.00,,,0.00,Wunderground v.1.13,2013-01-27 15:12:00,
2013-01-27 09:18:00,24.8,16.7,29.97,ESE,107,7.0,7.0,71,0.00,,,0.00,Wunderground v.1.13,2013-01-27 15:18:00,
2013-01-27 09:19:00,24.8,16.7,29.97,ESE,108,7.0,7.0,71,0.00,,,0.00,Wunderground v.1.13,2013-01-27 15:19:00,
2013-01-27 09:23:00,25.0,16.9,29.97,East,95,6.0,7.0,71,0.00,,,0.00,Wunderground v.1.13,2013-01-27 15:23:00,
2013-01-27 09:25:00,25.1,17.0,29.97,ESE,117,6.0,6.0,71,0.00,,,0.00,Wunderground v.1.13,2013-01-27 15:25:00,
2013-01-27 09:26:00,25.1,17.0,29.97,ESE,119,6.0,6.0,71,0.00,,,0.00,Wunderground v.1.13,2013-01-27 15:26:00,
2013-01-27 09:31:00,25.3,17.2,29.97,East,99,6.0,6.0,71,0.00,,,0.00,Wunderground v.1.13,2013-01-27 15:31:00,
2013-01-27 09:32:00,25.4,17.3,29.97,ESE,108,6.0,6.0,71,0.00,,,0.00,Wunderground v.1.13,2013-01-27 15:32:00,
2013-01-27 09:38:00,25.6,17.2,29.97,ESE,104,6.0,8.0,70,0.00,,,0.00,Wunderground v.1.13,2013-01-27 15:38:00,
2013-01-27 09:40:00,25.7,17.3,29.97,ESE,111,6.0,7.0,70,0.00,,,0.00,Wunderground v.1.13,2013-01-27 15:40:00,
2013-01-27 09:44:00,25.8,17.7,29.97,ESE,116,6.0,8.0,71,0.00,,,0.00,Wunderground v.1.13,2013-01-27 15:44:00,
2013-01-27 09:48:00,25.9,17.8,29.97,East,98,6.0,7.0,71,0.00,,,0.00,Wunderground v.1.13,2013-01-27 15:48:00,
2013-01-27 09:50:00,26.0,17.6,29.97,SE,124,6.0,7.0,70,0.00,,,0.00,Wunderground v.1.13,2013-01-27 15:50:00,
2013-01-27 09:53:00,26.2,17.7,29.97,ESE,119,6.0,9.0,70,0.00,,,0.00,Wunderground v.1.13,2013-01-27 15:53:00,
2013-01-27 09:56:00,26.3,17.8,29.97,ESE,123,6.0,6.0,70,0.00,,,0.00,Wunderground v.1.13,2013-01-27 15:56:00,
2013-01-27 09:59:00,26.5,18.0,29.97,ESE,116,7.0,9.0,70,0.00,,,0.00,Wunderground v.1.13,2013-01-27 15:59:00,
2013-01-27 10:01:00,26.6,18.1,29.97,East,95,6.0,7.0,70,0.00,,,0.00,Wunderground v.1.13,2013-01-27 16:01:00,
2013-01-27 10:02:00,26.6,18.1,29.96,East,98,6.0,7.0,70,0.00,,,0.00,Wunderground v.1.13,2013-01-27 16:02:00,
2013-01-27 10:04:00,26.7,18.2,29.96,ESE,105,6.0,7.0,70,0.00,,,0.00,Wunderground v.1.13,2013-01-27 16:04:00,
2013-01-27 10:08:00,26.9,18.1,29.96,ESE,103,6.0,10.0,69,0.00,,,0.00,Wunderground v.1.13,2013-01-27 16:08:00,
2013-01-27 10:09:00,26.9,18.1,29.96,ESE,103,6.0,10.0,69,0.00,,,0.00,Wunderground v.1.13,2013-01-27 16:09:00,
2013-01-27 10:10:00,27.0,18.2,29.96,ESE,115,6.0,6.0,69,0.00,,,0.00,Wunderground v.1.13,2013-01-27 16:10:00,
2013-01-27 10:14:00,27.1,18.3,29.96,ESE,120,6.0,7.0,69,0.00,,,0.00,Wunderground v.1.13,2013-01-27 16:14:00,
2013-01-27 10:15:00,27.1,18.3,29.96,East,98,6.0,8.0,69,0.00,,,0.00,Wunderground v.1.13,2013-01-27 16:15:00,
2013-01-27 10:20:00,27.3,18.5,29.96,ESE,119,6.0,7.0,69,0.00,,,0.00,Wunderground v.1.13,2013-01-27 16:20:00,
2013-01-27 10:21:00,27.4,18.6,29.96,ESE,117,6.0,8.0,69,0.00,,,0.00,Wunderground v.1.13,2013-01-27 16:21:00,
2013-01-27 10:24:00,27.5,18.7,29.96,ESE,105,7.0,9.0,69,0.00,,,0.00,Wunderground v.1.13,2013-01-27 16:24:00,
2013-01-27 10:27:00,27.6,18.8,29.95,ESE,123,7.0,11.0,69,0.00,,,0.00,Wunderground v.1.13,2013-01-27 16:27:00,
2013-01-27 10:28:00,27.6,18.8,29.95,ESE,105,7.0,11.0,69,0.00,,,0.00,Wunderground v.1.13,2013-01-27 16:28:00,
2013-01-27 10:31:00,27.7,18.8,29.95,ESE,118,7.0,8.0,69,0.00,,,0.00,Wunderground v.1.13,2013-01-27 16:31:00,
2013-01-27 10:34:00,27.9,19.0,29.95,ESE,118,7.0,9.0,69,0.00,,,0.00,Wunderground v.1.13,2013-01-27 16:34:00,
2013-01-27 10:36:00,27.9,19.4,29.95,ESE,117,7.0,7.0,70,0.00,,,0.00,Wunderground v.1.13,2013-01-27 16:36:00,
2013-01-27 10:37:00,27.9,19.4,29.95,ESE,117,7.0,7.0,70,0.00,,,0.00,Wunderground v.1.13,2013-01-27 16:37:00,
2013-01-27 10:40:00,28.1,19.2,29.95,ESE,112,7.0,8.0,69,0.00,,,0.00,Wunderground v.1.13,2013-01-27 16:40:00,
2013-01-27 10:41:00,28.2,19.3,29.95,ESE,117,7.0,8.0,69,0.00,,,0.00,Wunderground v.1.13,2013-01-27 16:41:00,
2013-01-27 10:42:00,28.2,19.3,29.95,ESE,123,7.0,8.0,69,0.00,,,0.00,Wunderground v.1.13,2013-01-27 16:42:00,
2013-01-27 10:46:00,28.4,19.5,29.95,ESE,119,8.0,8.0,69,0.00,,,0.00,Wunderground v.1.13,2013-01-27 16:46:00,
2013-01-27 10:47:00,28.4,19.5,29.95,ESE,119,8.0,8.0,69,0.00,,,0.00,Wunderground v.1.13,2013-01-27 16:47:00,
2013-01-27 10:48:00,28.5,19.6,29.95,ESE,119,8.0,8.0,69,0.00,,,0.00,Wunderground v.1.13,2013-01-27 16:48:00,
2013-01-27 10:49:00,28.5,19.6,29.95,ESE,117,8.0,8.0,69,0.00,,,0.00,Wunderground v.1.13,2013-01-27 16:49:00,
2013-01-27 10:53:00,28.6,19.7,29.95,ESE,118,8.0,9.0,69,0.00,,,0.00,Wunderground v.1.13,2013-01-27 16:53:00,
2013-01-27 10:56:00,28.8,19.9,29.95,ESE,123,7.0,10.0,69,0.00,,,0.00,Wunderground v.1.13,2013-01-27 16:56:00,
2013-01-27 10:58:00,28.9,20.0,29.95,SE,128,7.0,10.0,69,0.00,,,0.00,Wunderground v.1.13,2013-01-27 16:58:00,
2013-01-27 11:00:00,29.1,19.8,29.95,ESE,122,7.0,12.0,68,0.00,,,0.00,Wunderground v.1.13,2013-01-27 17:00:00,
2013-01-27 11:03:00,29.2,19.9,29.95,ESE,123,8.0,12.0,68,0.00,,,0.00,Wunderground v.1.13,2013-01-27 17:03:00,
2013-01-27 11:04:00,29.3,20.0,29.95,ESE,107,8.0,13.0,68,0.00,,,0.00,Wunderground v.1.13,2013-01-27 17:04:00,
2013-01-27 11:05:00,29.3,19.7,29.95,ESE,121,8.0,8.0,67,0.00,,,0.00,Wunderground v.1.13,2013-01-27 17:05:00,
2013-01-27 11:09:00,29.6,20.0,29.95,SE,126,8.0,10.0,67,0.00,,,0.00,Wunderground v.1.13,2013-01-27 17:09:00,
2013-01-27 11:11:00,29.7,20.1,29.95,ESE,113,8.0,11.0,67,0.00,,,0.00,Wunderground v.1.13,2013-01-27 17:11:00,
2013-01-27 11:13:00,29.8,20.5,29.95,ESE,113,8.0,11.0,68,0.00,,,0.00,Wunderground v.1.13,2013-01-27 17:13:00,
2013-01-27 11:15:00,29.9,20.3,29.94,ESE,116,8.0,9.0,67,0.00,,,0.00,Wunderground v.1.13,2013-01-27 17:15:00,
2013-01-27 11:17:00,30.0,20.0,29.94,ESE,123,9.0,11.0,66,0.00,,,0.00,Wunderground v.1.13,2013-01-27 17:17:00,
2013-01-27 11:18:00,30.0,20.4,29.95,SE,126,9.0,11.0,67,0.00,,,0.00,Wunderground v.1.13,2013-01-27 17:18:00,
2013-01-27 11:23:00,30.3,20.3,29.95,SE,127,9.0,11.0,66,0.00,,,0.00,Wunderground v.1.13,2013-01-27 17:23:00,
2013-01-27 11:25:00,30.3,20.3,29.95,ESE,123,9.0,10.0,66,0.00,,,0.00,Wunderground v.1.13,2013-01-27 17:25:00,
2013-01-27 11:26:00,30.3,20.3,29.95,ESE,115,9.0,10.0,66,0.00,,,0.00,Wunderground v.1.13,2013-01-27 17:26:00,
2013-01-27 11:28:00,30.4,20.4,29.95,SE,129,9.0,10.0,66,0.00,,,0.00,Wunderground v.1.13,2013-01-27 17:28:00,
2013-01-27 11:32:00,30.5,20.1,29.94,ESE,115,9.0,13.0,65,0.00,,,0.00,Wunderground v.1.13,2013-01-27 17:32:00,
2013-01-27 11:35:00,30.6,20.6,29.94,SE,124,10.0,12.0,66,0.00,,,0.00,Wunderground v.1.13,2013-01-27 17:35:00,
2013-01-27 11:38:00,30.7,20.3,29.94,ESE,117,10.0,12.0,65,0.00,,,0.00,Wunderground v.1.13,2013-01-27 17:38:00,
2013-01-27 11:41:00,30.8,20.4,29.94,ESE,113,10.0,13.0,65,0.00,,,0.00,Wunderground v.1.13,2013-01-27 17:41:00,
2013-01-27 11:42:00,30.8,20.4,29.93,ESE,105,10.0,13.0,65,0.00,,,0.00,Wunderground v.1.13,2013-01-27 17:42:00,
2013-01-27 11:47:00,30.9,20.9,29.93,ESE,123,10.0,12.0,66,0.00,,,0.00,Wunderground v.1.13,2013-01-27 17:47:00,
2013-01-27 11:49:00,30.8,20.8,29.93,ESE,106,9.0,12.0,66,0.00,,,0.00,Wunderground v.1.13,2013-01-27 17:49:00,
2013-01-27 11:52:00,30.9,20.9,29.93,ESE,118,9.0,10.0,66,0.00,,,0.00,Wunderground v.1.13,2013-01-27 17:52:00,
2013-01-27 11:55:00,30.9,20.9,29.93,ESE,119,8.0,9.0,66,0.00,,,0.00,Wunderground v.1.13,2013-01-27 17:55:00,
2013-01-27 11:56:00,30.9,20.5,29.93,SE,125,9.0,9.0,65,0.00,,,0.00,Wunderground v.1.13,2013-01-27 17:56:00,
2013-01-27 12:02:00,31.1,20.7,29.93,ESE,112,9.0,10.0,65,0.00,,,0.00,Wunderground v.1.13,2013-01-27 18:02:00,
2013-01-27 12:03:00,31.1,20.7,29.93,ESE,113,9.0,10.0,65,0.00,,,0.00,Wunderground v.1.13,2013-01-27 18:03:00,
2013-01-27 12:04:00,31.1,21.1,29.93,ESE,121,9.0,10.0,66,0.00,,,0.00,Wunderground v.1.13,2013-01-27 18:04:00,
2013-01-27 12:09:00,31.1,21.1,29.93,ESE,115,9.0,11.0,66,0.00,,,0.00,Wunderground v.1.13,2013-01-27 18:09:00,
2013-01-27 12:10:00,31.1,21.1,29.92,ESE,120,9.0,10.0,66,0.00,,,0.00,Wunderground v.1.13,2013-01-27 18:10:00,
2013-01-27 12:15:00,31.1,21.1,29.92,SE,124,9.0,9.0,66,0.00,,,0.00,Wunderground v.1.13,2013-01-27 18:15:00,
2013-01-27 12:16:00,31.1,21.4,29.92,SE,138,9.0,9.0,67,0.00,,,0.00,Wunderground v.1.13,2013-01-27 18:16:00,
2013-01-27 12:19:00,31.2,21.2,29.92,ESE,111,9.0,14.0,66,0.00,,,0.00,Wunderground v.1.13,2013-01-27 18:19:00,
2013-01-27 12:21:00,31.2,21.2,29.92,SE,130,9.0,14.0,66,0.00,,,0.00,Wunderground v.1.13,2013-01-27 18:21:00,
2013-01-27 12:22:00,31.3,21.3,29.92,SE,128,9.0,14.0,66,0.00,,,0.00,Wunderground v.1.13,2013-01-27 18:22:00,
2013-01-27 12:23:00,31.2,21.2,29.92,SE,126,10.0,15.0,66,0.00,,,0.00,Wunderground v.1.13,2013-01-27 18:23:00,
2013-01-27 12:29:00,31.3,21.3,29.91,ESE,121,11.0,13.0,66,0.00,,,0.00,Wunderground v.1.13,2013-01-27 18:29:00,
2013-01-27 12:30:00,31.3,21.6,29.92,ESE,120,10.0,10.0,67,0.00,,,0.00,Wunderground v.1.13,2013-01-27 18:30:00,
2013-01-27 12:31:00,31.3,21.6,29.92,SE,125,10.0,10.0,67,0.00,,,0.00,Wunderground v.1.13,2013-01-27 18:31:00,
2013-01-27 12:37:00,31.4,21.7,29.91,ESE,108,9.0,11.0,67,0.00,,,0.00,Wunderground v.1.13,2013-01-27 18:37:00,
2013-01-27 12:39:00,31.4,21.7,29.91,SE,126,9.0,12.0,67,0.00,,,0.00,Wunderground v.1.13,2013-01-27 18:39:00,
2013-01-27 12:40:00,31.4,21.3,29.91,ESE,116,9.0,9.0,66,0.00,,,0.00,Wunderground v.1.13,2013-01-27 18:40:00,
2013-01-27 12:42:00,31.5,21.4,29.91,ESE,119,9.0,11.0,66,0.00,,,0.00,Wunderground v.1.13,2013-01-27 18:42:00,
2013-01-27 12:45:00,31.6,21.5,29.91,ESE,119,10.0,14.0,66,0.00,,,0.00,Wunderground v.1.13,2013-01-27 18:45:00,
2013-01-27 12:48:00,31.7,21.6,29.91,ESE,113,10.0,14.0,66,0.00,,,0.00,Wunderground v.1.13,2013-01-27 18:48:00,
2013-01-27 12:51:00,31.6,21.9,29.91,ESE,111,9.0,13.0,67,0.00,,,0.00,Wunderground v.1.13,2013-01-27 18:51:00,
2013-01-27 12:52:00,31.7,21.6,29.91,ESE,117,10.0,13.0,66,0.00,,,0.00,Wunderground v.1.13,2013-01-27 18:52:00,
2013-01-27 12:55:00,31.8,22.1,29.91,SE,129,9.0,11.0,67,0.00,,,0.00,Wunderground v.1.13,2013-01-27 18:55:00,
2013-01-27 12:57:00,31.8,22.1,29.90,SE,124,9.0,15.0,67,0.00,,,0.00,Wunderground v.1.13,2013-01-27 18:57:00,
2013-01-27 13:01:00,31.9,22.2,29.90,ESE,122,10.0,10.0,67,0.00,,,0.00,Wunderground v.1.13,2013-01-27 19:01:00,
2013-01-27 13:02:00,31.9,22.2,29.90,SE,131,9.0,10.0,67,0.00,,,0.00,Wunderground v.1.13,2013-01-27 19:02:00,
2013-01-27 13:03:00,31.9,22.2,29.90,SE,126,9.0,10.0,67,0.00,,,0.00,Wunderground v.1.13,2013-01-27 19:03:00,
2013-01-27 13:07:00,31.9,22.2,29.90,SE,129,9.0,10.0,67,0.00,,,0.00,Wunderground v.1.13,2013-01-27 19:07:00,
2013-01-27 13:09:00,32.0,21.9,29.90,SE,128,9.0,15.0,66,0.00,,,0.00,Wunderground v.1.13,2013-01-27 19:09:00,
2013-01-27 13:11:00,32.0,21.9,29.90,SE,126,10.0,10.0,66,0.00,,,0.00,Wunderground v.1.13,2013-01-27 19:11:00,
2013-01-27 13:14:00,32.1,22.0,29.90,SE,124,10.0,12.0,66,0.00,,,0.00,Wunderground v.1.13,2013-01-27 19:14:00,
2013-01-27 13:17:00,32.1,22.4,29.89,ESE,123,9.0,10.0,67,0.00,,,0.00,Wunderground v.1.13,2013-01-27 19:17:00,
2013-01-27 13:19:00,32.2,22.1,29.89,SE,130,8.0,14.0,66,0.00,,,0.00,Wunderground v.1.13,2013-01-27 19:19:00,
2013-01-27 13:21:00,32.1,22.0,29.89,ESE,113,9.0,11.0,66,0.00,,,0.00,Wunderground v.1.13,2013-01-27 19:21:00,
2013-01-27 13:26:00,32.1,22.7,29.89,SE,125,10.0,13.0,68,0.00,,,0.00,Wunderground v.1.13,2013-01-27 19:26:00,
2013-01-27 13:28:00,31.9,22.9,29.89,ESE,118,11.0,14.0,69,0.00,,,0.00,Wunderground v.1.13,2013-01-27 19:28:00,
2013-01-27 13:29:00,31.9,22.5,29.89,ESE,119,11.0,14.0,68,0.00,,,0.00,Wunderground v.1.13,2013-01-27 19:29:00,
2013-01-27 13:31:00,31.9,22.9,29.88,ESE,122,10.0,11.0,69,0.00,,,0.00,Wunderground v.1.13,2013-01-27 19:31:00,
2013-01-27 13:34:00,31.6,23.3,29.88,ESE,121,10.0,13.0,71,0.00,,,0.00,Wunderground v.1.13,2013-01-27 19:34:00,
2013-01-27 13:37:00,31.5,23.5,29.88,ESE,111,9.0,10.0,72,0.00,,,0.00,Wunderground v.1.13,2013-01-27 19:37:00,
2013-01-27 13:42:00,31.3,24.0,29.88,ESE,107,8.0,10.0,74,0.00,,,0.00,Wunderground v.1.13,2013-01-27 19:42:00,
2013-01-27 13:43:00,31.2,23.9,29.88,ESE,111,8.0,12.0,74,0.00,,,0.00,Wunderground v.1.13,2013-01-27 19:43:00,
2013-01-27 13:48:00,30.9,24.2,29.88,ESE,120,8.0,10.0,76,0.00,,,0.00,Wunderground v.1.13,2013-01-27 19:48:00,
2013-01-27 13:49:00,30.9,24.2,29.88,ESE,122,8.0,10.0,76,0.00,,,0.00,Wunderground v.1.13,2013-01-27 19:49:00,
2013-01-27 13:51:00,30.8,24.4,29.88,East,100,9.0,9.0,77,0.00,,,0.00,Wunderground v.1.13,2013-01-27 19:51:00,
2013-01-27 13:57:00,31.0,24.6,29.87,ESE,108,7.0,8.0,77,0.00,,,0.00,Wunderground v.1.13,2013-01-27 19:57:00,
2013-01-27 13:58:00,31.0,24.6,29.87,ESE,108,6.0,8.0,77,0.00,,,0.00,Wunderground v.1.13,2013-01-27 19:58:00,
2013-01-27 14:03:00,31.1,24.4,29.87,East,90,5.0,8.0,76,0.00,,,0.00,Wunderground v.1.13,2013-01-27 20:03:00,
2013-01-27 14:04:00,31.1,24.4,29.87,East,90,5.0,8.0,76,0.00,,,0.00,Wunderground v.1.13,2013-01-27 20:04:00,
2013-01-27 14:05:00,31.1,24.4,29.87,East,96,5.0,7.0,76,0.00,,,0.00,Wunderground v.1.13,2013-01-27 20:05:00,
2013-01-27 14:06:00,31.1,24.1,29.87,East,79,5.0,9.0,75,0.00,,,0.00,Wunderground v.1.13,2013-01-27 20:06:00,
2013-01-27 14:11:00,31.3,24.3,29.87,East,90,6.0,6.0,75,0.00,,,0.00,Wunderground v.1.13,2013-01-27 20:11:00,
2013-01-27 14:13:00,31.3,24.0,29.87,East,98,6.0,7.0,74,0.00,,,0.00,Wunderground v.1.13,2013-01-27 20:13:00,
2013-01-27 14:14:00,31.3,24.0,29.86,ESE,105,6.0,8.0,74,0.00,,,0.00,Wunderground v.1.13,2013-01-27 20:14:00,
2013-01-27 14:17:00,31.4,24.1,29.86,ESE,113,7.0,9.0,74,0.00,,,0.00,Wunderground v.1.13,2013-01-27 20:17:00,
2013-01-27 14:20:00,31.4,24.1,29.86,ESE,105,7.0,8.0,74,0.00,,,0.00,Wunderground v.1.13,2013-01-27 20:20:00,
2013-01-27 14:25:00,31.4,24.4,29.86,ESE,109,7.0,9.0,75,0.00,,,0.00,Wunderground v.1.13,2013-01-27 20:25:00,
2013-01-27 14:26:00,31.4,24.4,29.86,NE,37,7.0,9.0,75,0.00,,,0.00,Wunderground v.1.13,2013-01-27 20:26:00,
2013-01-27 14:28:00,31.5,24.5,29.86,ESE,116,6.0,10.0,75,0.00,,,0.00,Wunderground v.1.13,2013-01-27 20:28:00,
2013-01-27 14:30:00,31.5,24.5,29.86,SE,124,7.0,10.0,75,0.00,,,0.00,Wunderground v.1.13,2013-01-27 20:30:00,
2013-01-27 14:32:00,31.5,24.5,29.86,ESE,122,7.0,10.0,75,0.00,,,0.00,Wunderground v.1.13,2013-01-27 20:32:00,
2013-01-27 14:33:00,31.5,24.5,29.86,SE,130,7.0,10.0,75,0.00,,,0.00,Wunderground v.1.13,2013-01-27 20:33:00,
2013-01-27 14:36:00,31.5,24.8,29.85,ESE,111,8.0,13.0,76,0.00,,,0.00,Wunderground v.1.13,2013-01-27 20:36:00,
2013-01-27 14:38:00,31.5,25.1,29.85,SE,132,9.0,13.0,77,0.00,,,0.00,Wunderground v.1.13,2013-01-27 20:38:00,
2013-01-27 14:43:00,31.4,25.6,29.85,SE,131,10.0,15.0,79,0.00,,,0.00,Wunderground v.1.13,2013-01-27 20:43:00,
2013-01-27 14:44:00,31.4,25.9,29.85,ESE,121,10.0,15.0,80,0.00,,,0.00,Wunderground v.1.13,2013-01-27 20:44:00,
2013-01-27 14:45:00,31.3,25.8,29.85,ESE,119,10.0,11.0,80,0.00,,,0.00,Wunderground v.1.13,2013-01-27 20:45:00,
2013-01-27 14:47:00,31.1,26.0,29.85,ESE,117,10.0,11.0,81,0.00,,,0.00,Wunderground v.1.13,2013-01-27 20:47:00,
2013-01-27 14:51:00,30.9,26.9,29.85,SE,126,10.0,10.0,85,0.00,,,0.00,Wunderground v.1.13,2013-01-27 20:51:00,
2013-01-27 14:52:00,30.8,27.1,29.85,SE,126,10.0,11.0,86,0.00,,,0.00,Wunderground v.1.13,2013-01-27 20:52:00,
2013-01-27 14:57:00,30.5,27.1,29.85,ESE,115,10.0,10.0,87,0.00,,,0.00,Wunderground v.1.13,2013-01-27 20:57:00,
2013-01-27 14:58:00,30.5,27.4,29.85,ESE,102,10.0,10.0,88,0.00,,,0.00,Wunderground v.1.13,2013-01-27 20:58:00,
2013-01-27 14:59:00,30.4,27.3,29.85,ESE,117,9.0,10.0,88,0.00,,,0.00,Wunderground v.1.13,2013-01-27 20:59:00,
2013-01-27 15:01:00,30.2,27.1,29.85,ESE,117,8.0,12.0,88,0.00,,,0.00,Wunderground v.1.13,2013-01-27 21:01:00,
2013-01-27 15:05:00,30.0,26.9,29.85,ESE,122,8.0,12.0,88,0.00,,,0.00,Wunderground v.1.13,2013-01-27 21:05:00,
2013-01-27 15:07:00,29.9,27.1,29.85,ESE,113,8.0,12.0,89,0.00,,,0.00,Wunderground v.1.13,2013-01-27 21:07:00,
2013-01-27 15:09:00,29.8,27.0,29.85,ESE,123,8.0,12.0,89,0.00,,,0.00,Wunderground v.1.13,2013-01-27 21:09:00,
2013-01-27 15:12:00,29.8,27.0,29.85,SE,130,8.0,9.0,89,0.00,,,0.00,Wunderground v.1.13,2013-01-27 21:12:00,
2013-01-27 15:14:00,29.8,27.0,29.85,ESE,115,8.0,11.0,89,0.00,,,0.00,Wunderground v.1.13,2013-01-27 21:14:00,
2013-01-27 15:18:00,29.8,27.2,29.85,ESE,119,8.0,9.0,90,0.00,,,0.00,Wunderground v.1.13,2013-01-27 21:18:00,
2013-01-27 15:19:00,29.7,27.1,29.85,ESE,117,8.0,9.0,90,0.00,,,0.00,Wunderground v.1.13,2013-01-27 21:19:00,
2013-01-27 15:23:00,29.8,27.5,29.85,ESE,107,7.0,9.0,91,0.00,,,0.00,Wunderground v.1.13,2013-01-27 21:23:00,
2013-01-27 15:29:00,29.8,27.5,29.85,ESE,120,8.0,11.0,91,0.00,,,0.00,Wunderground v.1.13,2013-01-27 21:29:00,
2013-01-27 15:31:00,29.8,27.5,29.85,ESE,119,8.0,10.0,91,0.00,,,0.00,Wunderground v.1.13,2013-01-27 21:31:00,
2013-01-27 15:37:00,29.8,27.5,29.85,ESE,113,7.0,9.0,91,0.00,,,0.00,Wunderground v.1.13,2013-01-27 21:37:00,
2013-01-27 15:38:00,29.8,27.8,29.85,SE,124,8.0,10.0,92,0.00,,,0.00,Wunderground v.1.13,2013-01-27 21:38:00,
2013-01-27 15:43:00,29.8,27.8,29.85,ESE,110,7.0,11.0,92,0.00,,,0.00,Wunderground v.1.13,2013-01-27 21:43:00,
2013-01-27 15:44:00,29.8,27.8,29.85,SE,125,8.0,11.0,92,0.00,,,0.00,Wunderground v.1.13,2013-01-27 21:44:00,
2013-01-27 15:45:00,29.8,27.8,29.85,SE,129,8.0,11.0,92,0.00,,,0.00,Wunderground v.1.13,2013-01-27 21:45:00,
2013-01-27 15:50:00,29.8,27.8,29.85,SE,126,7.0,11.0,92,0.00,,,0.00,Wunderground v.1.13,2013-01-27 21:50:00,
2013-01-27 15:51:00,29.8,27.8,29.85,ESE,115,8.0,11.0,92,0.00,,,0.00,Wunderground v.1.13,2013-01-27 21:51:00,
2013-01-27 15:54:00,29.9,27.9,29.85,East,98,7.0,8.0,92,0.00,,,0.00,Wunderground v.1.13,2013-01-27 21:54:00,
2013-01-27 15:56:00,29.9,28.1,29.85,East,86,6.0,8.0,93,0.00,,,0.00,Wunderground v.1.13,2013-01-27 21:56:00,
2013-01-27 15:57:00,29.9,28.1,29.85,East,91,6.0,6.0,93,0.00,,,0.00,Wunderground v.1.13,2013-01-27 21:57:00,
2013-01-27 15:59:00,29.9,28.1,29.85,ENE,67,5.0,6.0,93,0.00,,,0.00,Wunderground v.1.13,2013-01-27 21:59:00,
2013-01-27 16:01:00,29.9,28.1,29.85,East,94,4.0,5.0,93,0.00,,,0.00,Wunderground v.1.13,2013-01-27 22:01:00,
2013-01-27 16:02:00,29.9,28.1,29.85,ESE,105,4.0,5.0,93,0.00,,,0.00,Wunderground v.1.13,2013-01-27 22:02:00,
2013-01-27 16:03:00,29.9,28.1,29.85,ESE,115,4.0,7.0,93,0.00,,,0.00,Wunderground v.1.13,2013-01-27 22:03:00,
2013-01-27 16:09:00,29.8,28.0,29.85,East,101,4.0,6.0,93,0.00,,,0.00,Wunderground v.1.13,2013-01-27 22:09:00,
2013-01-27 16:10:00,29.9,28.1,29.85,East,95,4.0,4.0,93,0.00,,,0.00,Wunderground v.1.13,2013-01-27 22:10:00,
2013-01-27 16:11:00,29.9,28.1,29.85,East,92,4.0,6.0,93,0.00,,,0.00,Wunderground v.1.13,2013-01-27 22:11:00,
2013-01-27 16:12:00,29.8,28.0,29.85,East,80,4.0,6.0,93,0.00,,,0.00,Wunderground v.1.13,2013-01-27 22:12:00,
2013-01-27 16:17:00,29.8,28.0,29.84,SE,137,5.0,6.0,93,0.00,,,0.00,Wunderground v.1.13,2013-01-27 22:17:00,
2013-01-27 16:18:00,29.8,28.0,29.85,SE,129,5.0,6.0,93,0.00,,,0.00,Wunderground v.1.13,2013-01-27 22:18:00,
2013-01-27 16:19:00,29.7,27.9,29.85,ESE,112,5.0,7.0,93,0.00,,,0.00,Wunderground v.1.13,2013-01-27 22:19:00,
2013-01-27 16:20:00,29.7,27.9,29.85,ENE,60,6.0,6.0,93,0.00,,,0.00,Wunderground v.1.13,2013-01-27 22:20:00,
2013-01-27 16:24:00,29.6,27.8,29.84,ENE,76,6.0,7.0,93,0.00,,,0.00,Wunderground v.1.13,2013-01-27 22:24:00,
2013-01-27 16:30:00,29.4,27.6,29.84,East,93,7.0,7.0,93,0.00,,,0.00,Wunderground v.1.13,2013-01-27 22:30:00,
2013-01-27 16:31:00,29.3,27.5,29.84,North,9,7.0,7.0,93,0.00,,,0.00,Wunderground v.1.13,2013-01-27 22:31:00,
2013-01-27 16:34:00,29.2,27.4,29.84,ESE,102,7.0,7.0,93,0.00,,,0.00,Wunderground v.1.13,2013-01-27 22:34:00,
2013-01-27 16:36:00,29.2,27.4,29.84,NE,47,7.0,7.0,93,0.00,,,0.00,Wunderground v.1.13,2013-01-27 22:36:00,
2013-01-27 16:41:00,29.1,27.3,29.84,ESE,103,5.0,6.0,93,0.00,,,0.00,Wunderground v.1.13,2013-01-27 22:41:00,
2013-01-27 16:43:00,29.1,27.3,29.84,East,83,5.0,7.0,93,0.00,,,0.00,Wunderground v.1.13,2013-01-27 22:43:00,
2013-01-27 16:47:00,29.0,27.2,29.84,ESE,115,6.0,6.0,93,0.00,,,0.00,Wunderground v.1.13,2013-01-27 22:47:00,
2013-01-27 16:49:00,29.0,27.2,29.84,East,96,6.0,6.0,93,0.00,,,0.00,Wunderground v.1.13,2013-01-27 22:49:00,
2013-01-27 16:55:00,28.9,27.1,29.84,ESE,110,7.0,8.0,93,0.00,,,0.00,Wunderground v.1.13,2013-01-27 22:55:00,
2013-01-27 16:57:00,28.9,27.1,29.84,ENE,69,6.0,8.0,93,0.00,,,0.00,Wunderground v.1.13,2013-01-27 22:57:00,
2013-01-27 16:59:00,28.9,27.1,29.84,ESE,109,6.0,8.0,93,0.00,,,0.00,Wunderground v.1.13,2013-01-27 22:59:00,
2013-01-27 17:01:00,28.9,27.1,29.84,ESE,103,6.0,7.0,93,0.00,,,0.00,Wunderground v.1.13,2013-01-27 23:01:00,
2013-01-27 17:05:00,28.8,27.0,29.84,East,86,5.0,5.0,93,0.00,,,0.00,Wunderground v.1.13,2013-01-27 23:05:00,
2013-01-27 17:06:00,28.8,27.0,29.84,East,86,5.0,5.0,93,0.00,,,0.00,Wunderground v.1.13,2013-01-27 23:06:00,
2013-01-27 17:07:00,28.8,27.0,29.84,East,91,5.0,5.0,93,0.00,,,0.00,Wunderground v.1.13,2013-01-27 23:07:00,
2013-01-27 17:11:00,28.8,27.0,29.84,ESE,120,4.0,6.0,93,0.00,,,0.00,Wunderground v.1.13,2013-01-27 23:11:00,
2013-01-27 17:12:00,28.8,27.0,29.84,East,79,4.0,7.0,93,0.00,,,0.00,Wunderground v.1.13,2013-01-27 23:12:00,
2013-01-27 17:14:00,28.8,27.0,29.84,East,92,5.0,7.0,93,0.00,,,0.00,Wunderground v.1.13,2013-01-27 23:14:00,
2013-01-27 17:16:00,28.8,27.0,29.84,ESE,106,5.0,6.0,93,0.00,,,0.00,Wunderground v.1.13,2013-01-27 23:16:00,
2013-01-27 17:19:00,28.8,27.0,29.84,East,90,5.0,6.0,93,0.00,,,0.00,Wunderground v.1.13,2013-01-27 23:19:00,
2013-01-27 17:21:00,28.7,26.9,29.84,East,81,5.0,6.0,93,0.00,,,0.00,Wunderground v.1.13,2013-01-27 23:21:00,
2013-01-27 17:24:00,28.8,27.0,29.83,East,90,4.0,8.0,93,0.00,,,0.00,Wunderground v.1.13,2013-01-27 23:24:00,
2013-01-27 17:25:00,28.7,26.9,29.83,ESE,105,4.0,8.0,93,0.00,,,0.00,Wunderground v.1.13,2013-01-27 23:25:00,
2013-01-27 17:29:00,28.7,26.9,29.83,East,79,5.0,8.0,93,0.00,,,0.00,Wunderground v.1.13,2013-01-27 23:29:00,
2013-01-27 17:31:00,28.7,26.9,29.83,ESE,118,5.0,6.0,93,0.00,,,0.00,Wunderground v.1.13,2013-01-27 23:31:00,
2013-01-27 17:32:00,28.7,26.9,29.83,ESE,103,5.0,7.0,93,0.00,,,0.00,Wunderground v.1.13,2013-01-27 23:32:00,
2013-01-27 17:34:00,28.7,26.9,29.83,ESE,109,6.0,9.0,93,0.00,,,0.00,Wunderground v.1.13,2013-01-27 23:34:00,
2013-01-27 17:37:00,28.7,26.9,29.83,East,94,6.0,6.0,93,0.00,,,0.00,Wunderground v.1.13,2013-01-27 23:37:00,
2013-01-27 17:38:00,28.6,26.8,29.83,NNE,21,6.0,6.0,93,0.00,,,0.00,Wunderground v.1.13,2013-01-27 23:38:00,
2013-01-27 17:39:00,28.6,26.8,29.83,ENE,77,6.0,6.0,93,0.00,,,0.00,Wunderground v.1.13,2013-01-27 23:39:00,
2013-01-27 17:40:00,28.6,26.8,29.83,East,91,6.0,6.0,93,0.00,,,0.00,Wunderground v.1.13,2013-01-27 23:40:00,
2013-01-27 17:43:00,28.6,26.8,29.83,East,86,6.0,7.0,93,0.00,,,0.00,Wunderground v.1.13,2013-01-27 23:43:00,
2013-01-27 17:46:00,28.5,26.7,29.83,ESE,108,6.0,6.0,93,0.00,,,0.00,Wunderground v.1.13,2013-01-27 23:46:00,
2013-01-27 17:51:00,28.5,27.0,29.83,ESE,111,6.0,8.0,94,0.00,,,0.00,Wunderground v.1.13,2013-01-27 23:51:00,
2013-01-27 17:52:00,28.5,27.0,29.83,ENE,75,6.0,8.0,94,0.00,,,0.00,Wunderground v.1.13,2013-01-27 23:52:00,
2013-01-27 17:56:00,28.5,27.0,29.83,East,99,6.0,11.0,94,0.00,,,0.00,Wunderground v.1.13,2013-01-27 23:56:00,
2013-01-27 17:57:00,28.5,27.0,29.83,East,91,6.0,11.0,94,0.00,,,0.00,Wunderground v.1.13,2013-01-27 23:57:00,
2013-01-27 17:58:00,28.5,27.0,29.83,East,91,6.0,11.0,94,0.00,,,0.00,Wunderground v.1.13,2013-01-27 23:58:00,
2013-01-27 18:03:00,28.5,27.0,29.82,ESE,104,6.0,7.0,94,0.00,,,0.00,Wunderground v.1.13,2013-01-28 00:03:00,
2013-01-27 18:04:00,28.5,27.0,29.82,East,94,6.0,7.0,94,0.00,,,0.00,Wunderground v.1.13,2013-01-28 00:04:00,
2013-01-27 18:08:00,28.4,26.9,29.82,East,96,6.0,9.0,94,0.00,,,0.00,Wunderground v.1.13,2013-01-28 00:08:00,
2013-01-27 18:10:00,28.4,26.9,29.82,ESE,107,6.0,6.0,94,0.00,,,0.00,Wunderground v.1.13,2013-01-28 00:10:00,
2013-01-27 18:11:00,28.4,26.9,29.83,ENE,71,6.0,6.0,94,0.00,,,0.00,Wunderground v.1.13,2013-01-28 00:11:00,
2013-01-27 18:16:00,28.4,26.9,29.83,East,80,5.0,7.0,94,0.00,,,0.00,Wunderground v.1.13,2013-01-28 00:16:00,
2013-01-27 18:18:00,28.4,26.9,29.83,East,98,5.0,7.0,94,0.00,,,0.00,Wunderground v.1.13,2013-01-28 00:18:00,
2013-01-27 18:21:00,28.4,26.9,29.83,NE,37,5.0,6.0,94,0.00,,,0.00,Wunderground v.1.13,2013-01-28 00:21:00,
2013-01-27 18:23:00,28.4,26.9,29.83,ESE,105,5.0,6.0,94,0.00,,,0.00,Wunderground v.1.13,2013-01-28 00:23:00,
2013-01-27 18:28:00,28.4,26.9,29.83,ENE,61,5.0,5.0,94,0.00,,,0.00,Wunderground v.1.13,2013-01-28 00:28:00,
2013-01-27 18:29:00,28.5,27.0,29.83,ENE,65,4.0,5.0,94,0.00,,,0.00,Wunderground v.1.13,2013-01-28 00:29:00,
2013-01-27 18:30:00,28.5,27.0,29.83,ENE,75,4.0,4.0,94,0.00,,,0.00,Wunderground v.1.13,2013-01-28 00:30:00,
2013-01-27 18:33:00,28.5,27.0,29.83,ESE,103,4.0,6.0,94,0.00,,,0.00,Wunderground v.1.13,2013-01-28 00:33:00,
2013-01-27 18:34:00,28.5,27.0,29.83,East,99,4.0,6.0,94,0.00,,,0.00,Wunderground v.1.13,2013-01-28 00:34:00,
2013-01-27 18:38:00,28.4,26.9,29.83,East,93,4.0,6.0,94,0.00,,,0.00,Wunderground v.1.13,2013-01-28 00:38:00,
2013-01-27 18:40:00,28.4,26.9,29.83,East,95,4.0,5.0,94,0.00,,,0.00,Wunderground v.1.13,2013-01-28 00:40:00,
2013-01-27 18:45:00,28.4,26.9,29.83,ENE,76,4.0,5.0,94,0.00,,,0.00,Wunderground v.1.13,2013-01-28 00:45:00,
2013-01-27 18:48:00,28.4,26.9,29.83,East,82,4.0,5.0,94,0.00,,,0.00,Wunderground v.1.13,2013-01-28 00:48:00,
2013-01-27 18:49:00,28.4,26.9,29.83,ENE,64,4.0,5.0,94,0.00,,,0.00,Wunderground v.1.13,2013-01-28 00:49:00,
2013-01-27 18:51:00,28.4,26.9,29.83,East,87,3.0,4.0,94,0.00,,,0.00,Wunderground v.1.13,2013-01-28 00:51:00,
2013-01-27 18:54:00,28.4,26.9,29.83,East,84,4.0,5.0,94,0.00,,,0.00,Wunderground v.1.13,2013-01-28 00:54:00,
2013-01-27 18:56:00,28.4,26.9,29.83,NE,44,3.0,5.0,94,0.00,,,0.00,Wunderground v.1.13,2013-01-28 00:56:00,
2013-01-27 18:59:00,28.4,26.9,29.83,East,82,3.0,5.0,94,0.00,,,0.00,Wunderground v.1.13,2013-01-28 00:59:00,
2013-01-27 19:00:00,28.4,26.9,29.83,ESE,102,3.0,6.0,94,0.00,,,0.00,Wunderground v.1.13,2013-01-28 01:00:00,
2013-01-27 19:05:00,28.4,26.9,29.83,East,88,4.0,4.0,94,0.00,,,0.00,Wunderground v.1.13,2013-01-28 01:05:00,
2013-01-27 19:09:00,28.3,26.8,29.83,East,96,4.0,5.0,94,0.00,,,0.00,Wunderground v.1.13,2013-01-28 01:09:00,
2013-01-27 19:11:00,28.3,26.8,29.83,East,88,4.0,5.0,94,0.00,,,0.00,Wunderground v.1.13,2013-01-28 01:11:00,
2013-01-27 19:12:00,28.3,26.8,29.83,East,82,4.0,7.0,94,0.00,,,0.00,Wunderground v.1.13,2013-01-28 01:12:00,
2013-01-27 19:16:00,28.3,26.8,29.83,East,88,4.0,4.0,94,0.00,,,0.00,Wunderground v.1.13,2013-01-28 01:16:00,
2013-01-27 19:17:00,28.3,26.8,29.83,ENE,75,4.0,4.0,94,0.00,,,0.00,Wunderground v.1.13,2013-01-28 01:17:00,
2013-01-27 19:20:00,28.3,26.8,29.83,ENE,75,4.0,6.0,94,0.00,,,0.00,Wunderground v.1.13,2013-01-28 01:20:00,
2013-01-27 19:23:00,28.3,26.8,29.83,ENE,63,4.0,7.0,94,0.00,,,0.00,Wunderground v.1.13,2013-01-28 01:23:00,
2013-01-27 19:27:00,28.3,26.8,29.83,ENE,74,4.0,5.0,94,0.00,,,0.00,Wunderground v.1.13,2013-01-28 01:27:00,
2013-01-27 19:29:00,28.3,26.8,29.83,ENE,66,4.0,5.0,94,0.00,,,0.00,Wunderground v.1.13,2013-01-28 01:29:00,
2013-01-27 19:31:00,28.3,26.8,29.83,ESE,104,4.0,6.0,94,0.00,,,0.00,Wunderground v.1.13,2013-01-28 01:31:00,
2013-01-27 19:32:00,28.3,26.8,29.83,ENE,66,4.0,6.0,94,0.00,,,0.00,Wunderground v.1.13,2013-01-28 01:32:00,
2013-01-27 19:35:00,28.3,26.8,29.83,East,91,4.0,4.0,94,0.00,,,0.00,Wunderground v.1.13,2013-01-28 01:35:00,
2013-01-27 19:36:00,28.3,26.8,29.83,East,91,4.0,4.0,94,0.00,,,0.00,Wunderground v.1.13,2013-01-28 01:36:00,
2013-01-27 19:38:00,28.3,26.8,29.83,East,91,4.0,4.0,94,0.00,,,0.00,Wunderground v.1.13,2013-01-28 01:38:00,
2013-01-27 19:42:00,28.3,26.8,29.83,East,82,3.0,6.0,94,0.00,,,0.00,Wunderground v.1.13,2013-01-28 01:42:00,
2013-01-27 19:43:00,28.3,26.8,29.83,East,82,3.0,6.0,94,0.00,,,0.00,Wunderground v.1.13,2013-01-28 01:43:00,
2013-01-27 19:44:00,28.3,26.8,29.83,East,85,2.0,6.0,94,0.00,,,0.00,Wunderground v.1.13,2013-01-28 01:44:00,
2013-01-27 19:45:00,28.3,26.8,29.83,East,84,2.0,2.0,94,0.00,,,0.00,Wunderground v.1.13,2013-01-28 01:45:00,
2013-01-27 19:48:00,28.3,26.8,29.83,East,87,2.0,4.0,94,0.00,,,0.00,Wunderground v.1.13,2013-01-28 01:48:00,
2013-01-27 19:51:00,28.3,26.8,29.82,East,79,2.0,4.0,94,0.00,,,0.00,Wunderground v.1.13,2013-01-28 01:51:00,
2013-01-27 19:52:00,28.3,26.8,29.82,ENE,74,2.0,5.0,94,0.00,,,0.00,Wunderground v.1.13,2013-01-28 01:52:00,
2013-01-27 19:57:00,28.3,26.8,29.82,East,82,3.0,5.0,94,0.00,,,0.00,Wunderground v.1.13,2013-01-28 01:57:00,
2013-01-27 19:58:00,28.3,26.8,29.82,NE,56,3.0,5.0,94,0.00,,,0.00,Wunderground v.1.13,2013-01-28 01:58:00,
2013-01-27 19:59:00,28.2,27.0,29.82,East,87,3.0,5.0,95,0.00,,,0.00,Wunderground v.1.13,2013-01-28 01:59:00,
2013-01-27 20:03:00,28.3,27.1,29.82,ENE,71,3.0,3.0,95,0.00,,,0.00,Wunderground v.1.13,2013-01-28 02:03:00,
2013-01-27 20:04:00,28.2,27.0,29.82,ENE,74,3.0,3.0,95,0.00,,,0.00,Wunderground v.1.13,2013-01-28 02:04:00,
2013-01-27 20:05:00,28.2,27.0,29.82,ENE,74,3.0,3.0,95,0.00,,,0.00,Wunderground v.1.13,2013-01-28 02:05:00,
2013-01-27 20:10:00,28.2,27.0,29.82,ENE,75,3.0,5.0,95,0.00,,,0.00,Wunderground v.1.13,2013-01-28 02:10:00,
2013-01-27 20:11:00,28.2,27.0,29.82,ENE,63,3.0,5.0,95,0.00,,,0.00,Wunderground v.1.13,2013-01-28 02:11:00,
2013-01-27 20:12:00,28.2,27.0,29.82,ENE,67,3.0,5.0,95,0.00,,,0.00,Wunderground v.1.13,2013-01-28 02:12:00,
2013-01-27 20:13:00,28.2,27.0,29.82,ENE,65,3.0,5.0,95,0.00,,,0.00,Wunderground v.1.13,2013-01-28 02:13:00,
2013-01-27 20:18:00,28.2,27.0,29.82,ENE,68,3.0,3.0,95,0.00,,,0.00,Wunderground v.1.13,2013-01-28 02:18:00,
2013-01-27 20:19:00,28.2,27.0,29.82,East,84,3.0,4.0,95,0.00,,,0.00,Wunderground v.1.13,2013-01-28 02:19:00,
2013-01-27 20:25:00,28.2,26.7,29.82,East,91,3.0,3.0,94,0.00,,,0.00,Wunderground v.1.13,2013-01-28 02:25:00,
2013-01-27 20:26:00,28.2,26.7,29.82,East,91,3.0,3.0,94,0.00,,,0.00,Wunderground v.1.13,2013-01-28 02:26:00,
2013-01-27 20:27:00,28.2,26.7,29.82,East,86,3.0,3.0,94,0.00,,,0.00,Wunderground v.1.13,2013-01-28 02:27:00,
2013-01-27 20:30:00,28.2,26.7,29.81,East,86,3.0,3.0,94,0.00,,,0.00,Wunderground v.1.13,2013-01-28 02:30:00,
2013-01-27 20:32:00,28.2,26.7,29.81,East,99,3.0,4.0,94,0.00,,,0.00,Wunderground v.1.13,2013-01-28 02:32:00,
2013-01-27 20:37:00,28.2,27.0,29.81,ENE,69,3.0,5.0,95,0.00,,,0.00,Wunderground v.1.13,2013-01-28 02:37:00,
2013-01-27 20:40:00,28.2,27.0,29.81,ENE,66,3.0,4.0,95,0.00,,,0.00,Wunderground v.1.13,2013-01-28 02:40:00,
2013-01-27 20:46:00,28.2,27.0,29.81,ENE,77,3.0,3.0,95,0.00,,,0.00,Wunderground v.1.13,2013-01-28 02:46:00,
2013-01-27 20:47:00,28.2,27.0,29.81,NE,55,3.0,3.0,95,0.00,,,0.00,Wunderground v.1.13,2013-01-28 02:47:00,
2013-01-27 20:51:00,28.2,27.0,29.81,East,82,3.0,4.0,95,0.00,,,0.00,Wunderground v.1.13,2013-01-28 02:51:00,
2013-01-27 20:52:00,28.2,27.0,29.81,ENE,77,3.0,4.0,95,0.00,,,0.00,Wunderground v.1.13,2013-01-28 02:52:00,
2013-01-27 20:58:00,28.1,26.9,29.80,East,82,3.0,4.0,95,0.00,,,0.00,Wunderground v.1.13,2013-01-28 02:58:00,
2013-01-27 20:59:00,28.1,26.9,29.80,East,82,3.0,4.0,95,0.00,,,0.00,Wunderground v.1.13,2013-01-28 02:59:00,
2013-01-27 21:00:00,28.1,26.9,29.80,East,80,4.0,4.0,95,0.00,,,0.00,Wunderground v.1.13,2013-01-28 03:00:00,
2013-01-27 21:04:00,28.1,26.9,29.80,East,80,4.0,4.0,95,0.00,,,0.00,Wunderground v.1.13,2013-01-28 03:04:00,
2013-01-27 21:05:00,28.2,27.0,29.80,ENE,64,4.0,6.0,95,0.00,,,0.00,Wunderground v.1.13,2013-01-28 03:05:00,
2013-01-27 21:07:00,28.2,27.0,29.80,East,87,4.0,6.0,95,0.00,,,0.00,Wunderground v.1.13,2013-01-28 03:07:00,
2013-01-27 21:10:00,28.2,27.0,29.80,East,82,4.0,5.0,95,0.00,,,0.00,Wunderground v.1.13,2013-01-28 03:10:00,
2013-01-27 21:11:00,28.2,27.0,29.80,ESE,107,4.0,5.0,95,0.00,,,0.00,Wunderground v.1.13,2013-01-28 03:11:00,
2013-01-27 21:14:00,28.2,27.0,29.81,ESE,112,4.0,6.0,95,0.00,,,0.00,Wunderground v.1.13,2013-01-28 03:14:00,
2013-01-27 21:16:00,28.2,27.0,29.81,ESE,110,4.0,4.0,95,0.00,,,0.00,Wunderground v.1.13,2013-01-28 03:16:00,
2013-01-27 21:17:00,28.2,27.0,29.81,ESE,106,4.0,4.0,95,0.00,,,0.00,Wunderground v.1.13,2013-01-28 03:17:00,
2013-01-27 21:19:00,28.2,27.0,29.81,East,86,3.0,4.0,95,0.00,,,0.00,Wunderground v.1.13,2013-01-28 03:19:00,
2013-01-27 21:21:00,28.2,27.0,29.80,East,94,3.0,4.0,95,0.00,,,0.00,Wunderground v.1.13,2013-01-28 03:21:00,
2013-01-27 21:22:00,28.2,27.0,29.80,East,80,3.0,4.0,95,0.00,,,0.00,Wunderground v.1.13,2013-01-28 03:22:00,
2013-01-27 21:24:00,28.2,27.0,29.80,ESE,102,3.0,6.0,95,0.00,,,0.00,Wunderground v.1.13,2013-01-28 03:24:00,
2013-01-27 21:27:00,28.2,27.0,29.80,East,90,3.0,5.0,95,0.00,,,0.00,Wunderground v.1.13,2013-01-28 03:27:00,
2013-01-27 21:29:00,28.2,27.0,29.80,East,92,3.0,5.0,95,0.00,,,0.00,Wunderground v.1.13,2013-01-28 03:29:00,
2013-01-27 21:31:00,28.2,27.0,29.80,East,84,3.0,4.0,95,0.00,,,0.00,Wunderground v.1.13,2013-01-28 03:31:00,
2013-01-27 21:36:00,28.2,27.0,29.80,East,94,3.0,5.0,95,0.00,,,0.00,Wunderground v.1.13,2013-01-28 03:36:00,
2013-01-27 21:37:00,28.2,27.0,29.80,East,90,4.0,5.0,95,0.00,,,0.00,Wunderground v.1.13,2013-01-28 03:37:00,
2013-01-27 21:43:00,28.2,27.0,29.79,East,88,4.0,7.0,95,0.00,,,0.00,Wunderground v.1.13,2013-01-28 03:43:00,
2013-01-27 21:46:00,28.1,26.9,29.79,East,90,5.0,5.0,95,0.00,,,0.00,Wunderground v.1.13,2013-01-28 03:46:00,
2013-01-27 21:51:00,28.1,26.9,29.79,ESE,103,4.0,6.0,95,0.00,,,0.00,Wunderground v.1.13,2013-01-28 03:51:00,
2013-01-27 21:53:00,28.1,26.9,29.79,ENE,76,4.0,6.0,95,0.00,,,0.00,Wunderground v.1.13,2013-01-28 03:53:00,
2013-01-27 21:58:00,28.1,26.9,29.79,East,91,4.0,5.0,95,0.00,,,0.00,Wunderground v.1.13,2013-01-28 03:58:00,
2013-01-27 21:59:00,28.1,26.9,29.79,East,87,4.0,5.0,95,0.00,,,0.00,Wunderground v.1.13,2013-01-28 03:59:00,
2013-01-27 22:04:00,28.1,26.9,29.79,ENE,78,3.0,4.0,95,0.00,,,0.00,Wunderground v.1.13,2013-01-28 04:04:00,
2013-01-27 22:06:00,28.1,26.9,29.79,ENE,65,3.0,4.0,95,0.00,,,0.00,Wunderground v.1.13,2013-01-28 04:06:00,
2013-01-27 22:11:00,28.1,26.9,29.80,East,93,3.0,4.0,95,0.00,,,0.00,Wunderground v.1.13,2013-01-28 04:11:00,
2013-01-27 22:12:00,28.1,26.9,29.80,ESE,103,3.0,4.0,95,0.00,,,0.00,Wunderground v.1.13,2013-01-28 04:12:00,
2013-01-27 22:17:00,28.1,26.9,29.80,ENE,69,3.0,4.0,95,0.00,,,0.00,Wunderground v.1.13,2013-01-28 04:17:00,
2013-01-27 22:18:00,28.1,26.9,29.80,ENE,69,3.0,4.0,95,0.00,,,0.00,Wunderground v.1.13,2013-01-28 04:18:00,
2013-01-27 22:22:00,28.0,26.8,29.80,ENE,67,2.0,3.0,95,0.00,,,0.00,Wunderground v.1.13,2013-01-28 04:22:00,
2013-01-27 22:23:00,28.1,26.9,29.80,ENE,67,2.0,3.0,95,0.00,,,0.00,Wunderground v.1.13,2013-01-28 04:23:00,
2013-01-27 22:27:00,28.1,26.9,29.80,East,82,2.0,2.0,95,0.00,,,0.00,Wunderground v.1.13,2013-01-28 04:27:00,
2013-01-27 22:29:00,28.0,26.8,29.79,East,82,2.0,2.0,95,0.00,,,0.00,Wunderground v.1.13,2013-01-28 04:29:00,
2013-01-27 22:33:00,28.0,26.8,29.79,East,82,2.0,2.0,95,0.00,,,0.00,Wunderground v.1.13,2013-01-28 04:33:00,
2013-01-27 22:34:00,28.0,26.8,29.79,East,82,2.0,2.0,95,0.00,,,0.00,Wunderground v.1.13,2013-01-28 04:34:00,
2013-01-27 22:40:00,28.0,26.8,29.79,East,82,1.0,1.0,95,0.00,,,0.00,Wunderground v.1.13,2013-01-28 04:40:00,
2013-01-27 22:42:00,28.0,26.8,29.79,East,82,1.0,3.0,95,0.00,,,0.00,Wunderground v.1.13,2013-01-28 04:42:00,
2013-01-27 22:43:00,28.0,26.8,29.79,East,82,1.0,3.0,95,0.00,,,0.00,Wunderground v.1.13,2013-01-28 04:43:00,
2013-01-27 22:47:00,28.0,26.8,29.79,East,80,1.0,2.0,95,0.00,,,0.00,Wunderground v.1.13,2013-01-28 04:47:00,
2013-01-27 22:49:00,28.0,26.8,29.79,East,79,1.0,2.0,95,0.00,,,0.00,Wunderground v.1.13,2013-01-28 04:49:00,
2013-01-27 22:54:00,27.9,26.7,29.79,East,80,1.0,4.0,95,0.00,,,0.00,Wunderground v.1.13,2013-01-28 04:54:00,
2013-01-27 22:55:00,27.9,26.7,29.79,East,82,1.0,5.0,95,0.00,,,0.00,Wunderground v.1.13,2013-01-28 04:55:00,
2013-01-27 23:01:00,27.9,26.7,29.79,East,84,3.0,4.0,95,0.00,,,0.00,Wunderground v.1.13,2013-01-28 05:01:00,
2013-01-27 23:03:00,27.9,26.7,29.79,East,84,3.0,4.0,95,0.00,,,0.00,Wunderground v.1.13,2013-01-28 05:03:00,
2013-01-27 23:04:00,27.9,26.7,29.78,ENE,77,3.0,4.0,95,0.00,,,0.00,Wunderground v.1.13,2013-01-28 05:04:00,
2013-01-27 23:07:00,27.9,26.7,29.79,ENE,76,2.0,3.0,95,0.00,,,0.00,Wunderground v.1.13,2013-01-28 05:07:00,
2013-01-27 23:09:00,27.9,26.7,29.79,ENE,77,2.0,4.0,95,0.00,,,0.00,Wunderground v.1.13,2013-01-28 05:09:00,
2013-01-27 23:11:00,27.9,26.7,29.79,ENE,76,2.0,2.0,95,0.00,,,0.00,Wunderground v.1.13,2013-01-28 05:11:00,
2013-01-27 23:15:00,27.9,26.7,29.79,ENE,76,2.0,2.0,95,0.00,,,0.00,Wunderground v.1.13,2013-01-28 05:15:00,
2013-01-27 23:16:00,27.9,26.7,29.79,ENE,74,2.0,3.0,95,0.00,,,0.00,Wunderground v.1.13,2013-01-28 05:16:00,
2013-01-27 23:18:00,27.9,26.7,29.79,ENE,73,2.0,3.0,95,0.00,,,0.00,Wunderground v.1.13,2013-01-28 05:18:00,
2013-01-27 23:21:00,27.9,26.7,29.79,ENE,73,2.0,2.0,95,0.00,,,0.00,Wunderground v.1.13,2013-01-28 05:21:00,
2013-01-27 23:22:00,27.9,26.7,29.79,ENE,73,2.0,4.0,95,0.00,,,0.00,Wunderground v.1.13,2013-01-28 05:22:00,
2013-01-27 23:24:00,27.9,26.7,29.79,ENE,73,2.0,4.0,95,0.00,,,0.00,Wunderground v.1.13,2013-01-28 05:24:00,
2013-01-27 23:26:00,27.9,26.7,29.79,ENE,73,2.0,2.0,95,0.00,,,0.00,Wunderground v.1.13,2013-01-28 05:26:00,
2013-01-27 23:27:00,27.9,26.7,29.79,ENE,73,2.0,2.0,95,0.00,,,0.00,Wunderground v.1.13,2013-01-28 05:27:00,
2013-01-27 23:31:00,27.9,26.7,29.79,ENE,73,2.0,2.0,95,0.00,,,0.00,Wunderground v.1.13,2013-01-28 05:31:00,
2013-01-27 23:33:00,27.9,26.7,29.79,ENE,73,2.0,4.0,95,0.00,,,0.00,Wunderground v.1.13,2013-01-28 05:33:00,
2013-01-27 23:34:00,27.9,26.7,29.79,ENE,72,2.0,4.0,95,0.00,,,0.00,Wunderground v.1.13,2013-01-28 05:34:00,
2013-01-27 23:37:00,27.9,26.7,29.79,ENE,73,2.0,2.0,95,0.00,,,0.00,Wunderground v.1.13,2013-01-28 05:37:00,
2013-01-27 23:40:00,27.9,26.7,29.79,ENE,72,2.0,2.0,95,0.00,,,0.00,Wunderground v.1.13,2013-01-28 05:40:00,
2013-01-27 23:43:00,27.9,26.7,29.79,ENE,73,2.0,3.0,95,0.00,,,0.00,Wunderground v.1.13,2013-01-28 05:43:00,
2013-01-27 23:45:00,27.9,26.7,29.79,ENE,73,2.0,2.0,95,0.00,,,0.00,Wunderground v.1.13,2013-01-28 05:45:00,
2013-01-27 23:48:00,27.9,26.7,29.79,ENE,73,2.0,2.0,95,0.00,,,0.00,Wunderground v.1.13,2013-01-28 05:48:00,
2013-01-27 23:49:00,27.9,26.7,29.79,ENE,73,2.0,2.0,95,0.00,,,0.00,Wunderground v.1.13,2013-01-28 05:49:00,
2013-01-27 23:50:00,27.9,26.7,29.79,ENE,73,2.0,2.0,95,0.00,,,0.00,Wunderground v.1.13,2013-01-28 05:50:00,
2013-01-27 23:56:00,27.9,26.7,29.79,ENE,72,2.0,2.0,95,0.00,,,0.00,Wunderground v.1.13,2013-01-28 05:56:00,
2013-01-27 23:57:00,27.9,26.7,29.79,ENE,73,2.0,2.0,95,0.00,,,0.00,Wunderground v.1.13,2013-01-28 05:57:00,
2013-01-27 23:58:00,27.9,26.7,29.79,ENE,72,2.0,2.0,95,0.00,,,0.00,Wunderground v.1.13,2013-01-28 05:58:00,